GFSGBSN_prec_cthk_000.txt.gz
RH
31 28 30 29 30 32 33 34 35 31 29 33 31 30 31 32 29 20 14 15 17 20 20 20 15 14 16 18 18 16 15 16 15 15 13 15 17 15 13 11 10 11 11 11 11 13 13
30 30 32 32 32 34 35 34 34 37 35 32 31 32 29 18 15 15 16 18 20 21 21 17 14 13 15 17 16 14 14 15 16 16 14 12 13 13 11 11 12 12 14 15 17 18 16
31 33 34 33 33 35 35 34 32 31 28 26 25 19 16 16 17 17 18 21 21 21 20 17 15 14 16 17 17 15 15 15 15 16 14 13 11 12 12 12 14 15 17 17 18 19 20
33 35 35 35 34 36 35 31 27 23 20 21 17 17 18 18 17 18 22 23 23 22 20 17 17 15 17 15 15 14 14 14 15 16 18 18 17 16 15 15 17 16 16 19 19 20 20
36 38 38 36 37 36 35 29 25 23 23 21 21 20 19 19 20 22 22 23 21 20 18 18 16 16 15 14 14 12 12 13 15 17 19 18 16 16 16 17 16 14 16 15 18 19 20
39 41 37 37 37 36 32 29 27 25 23 21 21 20 20 21 21 21 21 21 20 19 18 16 15 14 13 12 9 9 11 13 15 16 17 17 17 16 16 15 17 16 16 16 16 17 17
43 41 38 38 37 34 30 29 27 24 21 21 21 21 21 20 20 19 21 20 20 19 18 19 16 13 12 11 9 10 9 11 13 14 17 16 16 19 17 17 16 17 18 19 19 20 22
44 42 39 37 35 30 28 27 25 22 21 21 21 22 21 19 18 19 20 21 19 18 16 14 14 13 13 11 11 10 10 12 12 13 13 14 17 17 18 18 18 18 19 20 21 22 24
46 44 39 35 31 28 26 25 24 21 21 21 22 21 20 20 20 19 19 19 16 16 17 15 15 15 14 14 12 12 12 14 15 16 16 17 19 20 20 21 22 21 21 23 24 23 24
46 46 42 33 30 27 23 23 22 20 20 21 21 21 19 19 19 18 19 17 14 15 17 17 16 15 14 15 16 15 14 15 17 19 21 21 24 25 25 26 25 24 24 26 24 24 26
48 46 43 36 29 27 23 21 20 20 19 19 19 19 18 17 18 17 18 17 15 20 24 18 17 18 15 16 17 19 18 17 19 22 24 25 27 29 29 30 29 31 29 28 27 27 28
49 47 42 36 31 27 23 20 19 18 18 18 17 18 17 17 16 17 16 17 17 25 25 22 20 21 20 19 20 21 22 22 24 25 25 27 28 29 30 29 30 30 29 30 32 34 39
51 48 44 37 32 28 25 22 19 17 16 16 16 15 16 17 16 16 16 16 22 25 23 21 21 22 22 23 23 24 26 27 26 26 29 29 31 33 32 31 32 31 30 35 43 43 42
51 49 44 37 34 30 27 25 21 18 16 15 15 15 14 15 14 18 16 25 24 24 23 21 21 22 24 26 28 29 27 28 30 29 32 34 37 36 37 37 37 35 36 41 44 43 40
50 48 45 39 35 32 29 27 23 19 16 15 14 14 13 14 14 15 22 31 25 22 20 20 22 25 28 30 30 31 32 33 37 36 36 36 38 38 38 37 36 37 40 38 44 52 48
49 47 43 41 36 33 32 29 26 23 18 16 15 15 14 15 15 18 31 24 22 21 22 25 29 30 32 33 34 36 41 40 39 35 32 34 39 34 34 35 36 36 38 42 39 54 40
50 48 43 41 39 34 33 31 28 27 22 20 18 20 16 17 20 32 31 27 26 28 29 32 34 34 37 40 40 40 41 41 40 38 34 31 31 31 33 37 38 42 43 41 40 45 47
49 50 45 41 39 36 35 33 30 31 28 26 24 27 20 22 28 31 29 28 31 33 35 38 38 37 40 42 42 41 42 41 40 35 33 35 36 34 35 40 43 44 46 44 45 50 56
50 50 47 43 40 38 37 36 32 31 32 31 29 30 28 29 34 35 31 33 35 37 40 38 38 38 40 41 42 42 42 40 37 35 37 35 37 32 34 41 42 46 46 46 49 54 59
51 53 50 45 41 39 39 39 38 35 36 31 32 37 34 32 31 30 34 37 38 41 39 37 37 38 38 39 40 41 39 35 34 34 33 34 36 35 31 33 37 41 44 49 52 63 61
54 55 52 46 40 40 39 42 42 40 37 34 32 36 34 37 35 36 37 40 41 40 38 36 37 36 35 39 36 34 32 30 30 31 34 37 38 41 40 38 39 47 49 50 52 61 70
56 54 52 47 40 37 39 38 44 44 41 37 35 37 37 39 39 41 43 44 40 38 36 35 35 34 30 28 25 28 28 28 28 34 37 40 45 46 45 43 43 46 48 54 58 63 66
57 54 50 46 42 37 36 39 37 39 41 38 39 38 39 44 43 45 44 41 38 35 35 34 32 29 29 29 29 31 32 32 33 36 43 48 52 55 58 52 51 59 51 53 57 64 65
56 54 50 46 41 37 35 35 37 37 35 37 38 40 41 45 45 44 42 39 37 34 33 32 30 29 30 31 33 33 33 35 38 43 46 58 59 66 69 67 66 52 51 53 56 59 61
54 55 53 50 46 40 36 35 35 37 38 36 36 38 41 48 42 41 40 38 36 34 33 31 32 32 35 35 36 42 36 39 42 44 49 55 64 72 76 69 54 51 52 57 60 58 61
49 50 52 50 46 42 38 36 36 37 38 37 38 37 38 41 43 38 36 35 35 35 35 36 35 36 36 39 40 47 42 40 41 46 54 57 62 71 79 84 78 62 58 59 61 68 74
48 48 47 48 45 41 39 37 37 37 39 39 39 38 37 34 36 34 33 32 32 34 36 37 39 40 41 45 50 52 46 44 46 55 58 62 67 72 78 85 73 67 67 68 81 84 82
52 48 47 47 47 42 40 38 38 40 41 42 40 40 39 37 37 34 34 32 33 34 37 38 42 43 46 50 53 52 55 50 51 49 53 58 71 79 81 86 89 74 77 87 80 79 86
61 54 50 49 48 46 42 40 40 42 43 43 44 43 42 41 41 39 37 36 34 34 35 38 38 36 42 48 52 54 57 58 60 60 56 62 64 69 76 71 79 82 86 82 84 86 89

GFSGBSN_prec_cthk_003.txt.gz
RH
30 30 30 26 28 29 31 33 33 35 32 28 27 24 26 28 29 28 27 25 20 17 20 19 17 19 18 27 25 17 17 14 13 13 20 24 26 22 22 16 16 14 13 11 7 8 11
31 31 28 29 30 32 33 35 36 35 32 31 29 27 28 31 30 27 19 14 17 22 21 17 15 17 20 29 16 15 18 17 19 21 18 20 21 18 15 16 21 14 14 13 13 14 13
32 29 29 31 32 33 35 35 38 35 32 30 30 30 36 27 18 15 16 19 23 22 18 14 11 14 21 21 14 15 15 15 15 18 17 14 15 14 13 12 12 13 15 15 16 19 20
29 29 31 32 33 34 35 34 28 31 23 26 30 23 17 17 17 17 19 23 22 19 17 14 13 13 24 14 16 13 13 13 13 14 13 11 11 16 21 15 15 17 23 26 21 19 20
29 32 32 33 35 36 37 33 27 23 20 22 20 19 18 17 17 20 22 23 22 20 18 17 16 21 18 14 16 14 14 16 16 18 17 16 18 19 15 19 21 19 29 23 24 18 20
31 33 33 36 36 37 37 32 27 24 24 23 21 20 17 18 20 22 24 22 21 20 19 17 18 21 15 16 13 12 13 14 19 19 19 18 20 23 21 24 28 27 22 18 23 23 17
34 35 36 36 37 38 35 31 28 26 25 23 21 19 20 22 21 22 22 21 21 20 21 25 18 18 12 11 9 11 10 15 16 19 27 18 30 34 24 21 22 17 19 22 24 21 18
36 38 38 37 37 37 32 30 27 25 24 23 23 22 20 21 20 21 21 36 29 21 19 17 15 14 12 14 14 13 13 17 17 23 16 18 25 18 18 19 18 19 21 22 20 19 18
39 41 38 38 36 34 30 29 25 24 23 24 25 22 20 20 18 20 27 25 20 18 18 17 16 15 13 15 14 13 14 15 16 16 17 25 20 18 19 21 19 22 22 25 24 22 20
42 43 40 38 34 30 27 27 25 23 23 23 23 22 21 19 19 22 25 17 17 19 20 15 16 15 15 15 14 13 12 16 16 18 20 20 19 21 22 24 22 28 24 24 23 23 34
44 45 41 36 31 28 25 25 24 22 22 21 23 21 21 22 26 24 20 16 14 20 30 16 17 15 14 17 17 16 15 16 18 18 22 26 26 29 29 27 26 31 26 26 25 25 27
47 47 43 36 31 28 24 22 23 22 20 20 21 20 19 22 22 22 17 15 14 30 30 19 18 21 19 17 17 19 20 20 22 23 24 24 25 27 28 27 26 27 28 27 28 33 37
49 47 43 37 31 27 24 21 20 20 20 19 19 19 19 20 24 18 17 17 22 35 21 21 21 23 25 22 22 23 24 25 28 31 31 29 30 30 29 33 32 30 34 43 48 45 50
51 48 43 37 33 30 26 22 19 18 18 19 18 18 18 18 16 17 17 25 34 25 22 21 22 24 26 24 25 25 28 28 27 29 32 36 43 33 31 33 34 34 35 43 43 44 42
53 49 43 37 34 31 28 23 20 16 16 18 17 17 18 17 15 17 24 36 30 21 22 21 22 25 25 24 26 27 29 29 31 32 36 34 36 32 29 30 30 36 37 30 39 45 43
54 51 44 38 35 34 31 26 22 17 16 17 19 19 21 15 13 17 34 37 26 20 19 20 28 30 33 29 30 31 35 35 33 28 28 29 38 29 29 30 34 36 33 45 41 52 38
53 51 46 40 37 35 33 28 26 19 16 17 21 24 17 14 15 26 37 29 22 21 22 29 33 32 33 32 35 37 35 34 34 33 29 27 31 34 32 36 39 44 47 41 36 42 50
51 50 45 43 38 36 35 32 30 23 20 19 24 33 15 15 24 36 34 25 25 25 28 32 34 33 38 36 36 36 37 39 35 31 34 30 32 32 31 32 33 35 42 40 44 48 51
49 51 46 41 41 37 37 34 32 30 25 28 32 33 19 21 40 38 31 29 29 30 33 37 37 36 38 38 37 37 39 36 32 31 36 31 36 35 35 43 43 41 44 43 45 48 51
49 51 49 43 40 40 39 37 33 33 32 31 35 34 27 28 35 32 31 29 31 34 38 39 37 35 37 37 36 38 36 32 29 30 28 30 32 32 35 34 34 39 40 41 47 55 56
49 50 50 47 41 40 40 40 37 35 36 33 38 38 32 33 32 32 31 32 33 37 40 38 37 38 38 38 37 34 32 29 28 27 31 31 35 36 35 34 35 40 42 43 46 51 60
52 51 51 49 44 40 42 43 42 39 38 35 36 35 33 34 34 34 36 35 36 39 38 38 38 38 35 34 27 28 27 27 29 31 34 32 41 40 39 36 37 40 41 41 46 53 56
55 53 52 49 45 41 41 43 45 43 40 39 31 32 37 35 36 39 39 40 41 41 40 37 36 34 33 32 29 30 32 32 30 35 37 38 40 43 48 41 44 54 44 45 50 54 59
59 55 55 51 47 41 39 41 42 44 43 40 38 36 37 40 42 43 43 43 44 42 37 36 35 34 32 27 28 31 32 34 36 37 38 44 46 54 58 55 65 53 46 48 49 54 56
60 59 56 52 48 44 40 39 41 41 38 38 39 40 40 47 44 44 45 46 45 40 37 37 34 30 29 33 35 37 36 38 40 38 40 45 54 60 64 56 48 49 50 53 54 54 58
60 59 58 52 47 44 41 39 39 42 42 40 39 40 43 43 48 46 47 46 46 44 39 36 32 31 33 37 37 45 41 35 39 41 43 47 54 58 66 74 71 61 59 60 61 67 75
58 59 58 55 52 49 46 40 38 40 43 42 42 41 44 44 46 45 47 46 45 40 38 35 35 36 36 42 46 49 42 37 39 48 55 57 61 63 65 75 63 60 63 64 75 81 84
56 56 56 56 54 51 47 43 41 41 42 44 43 41 41 40 41 43 42 40 37 37 40 38 38 41 42 45 48 47 52 43 43 40 47 52 63 67 70 79 78 67 70 79 80 82 85
54 53 51 50 51 52 48 43 41 42 42 44 48 43 41 42 43 37 36 34 34 38 39 38 39 36 38 44 46 49 50 52 49 50 43 47 51 60 69 67 71 76 83 87 86 86 87

GFSGBSN_prec_cthk_009.txt.gz
RH
30 30 35 32 32 31 27 27 25 25 29 30 30 30 28 26 23 24 25 19 23 27 30 27 24 26 37 35 29 21 20 18 19 19 25 31 32 31 25 25 27 26 21 21 22 17 8
28 31 33 32 36 29 27 27 26 27 30 32 33 29 26 25 22 25 24 22 27 31 27 24 21 34 36 43 29 20 19 20 24 27 35 33 37 36 31 28 22 18 15 11 6 4 7
26 30 35 38 33 29 27 27 27 29 32 33 33 27 24 21 28 26 25 28 30 27 22 20 25 34 35 32 24 19 20 25 26 30 31 30 36 33 30 25 19 16 10 11 11 13 13
27 30 39 38 31 29 27 28 27 29 32 28 29 28 23 26 28 27 28 27 22 22 22 19 23 30 32 25 16 17 17 19 23 24 20 28 31 27 22 19 18 15 21 25 29 29 20
29 37 40 34 31 27 29 28 28 31 29 24 29 30 27 29 29 29 24 23 24 22 18 18 22 28 27 16 13 15 12 15 18 19 15 19 23 18 21 24 30 31 36 36 36 27 22
31 39 35 34 29 29 29 29 31 30 24 29 30 33 30 31 24 22 24 24 23 20 18 19 24 28 20 18 14 13 13 14 15 15 13 19 30 34 35 33 36 37 36 36 35 26 21
34 40 37 33 29 30 31 31 32 28 24 22 28 22 22 23 24 25 24 24 22 23 25 27 31 23 16 16 16 16 15 18 18 22 33 35 35 34 31 33 35 37 30 34 33 26 25
39 41 37 30 30 32 33 33 30 26 25 23 25 22 23 26 26 26 31 39 40 35 28 26 26 22 19 17 14 14 16 19 24 26 32 33 36 40 39 31 26 34 31 35 26 24 22
38 41 36 30 32 34 34 32 30 27 26 24 23 23 27 27 29 37 44 43 36 28 26 22 19 15 17 17 16 12 16 19 26 26 27 30 31 21 25 27 22 28 31 32 26 23 18
42 40 36 31 33 35 35 32 28 28 27 26 25 26 27 26 33 38 41 33 26 24 22 16 16 13 15 14 13 12 15 20 22 27 24 26 28 24 22 22 21 27 26 24 22 22 28
40 43 36 32 34 35 34 30 28 28 28 28 27 28 25 27 35 38 35 23 25 27 41 19 17 16 16 20 17 12 14 19 22 23 24 28 26 25 25 26 21 26 23 22 21 25 29
46 44 35 34 35 35 32 28 27 27 27 30 29 28 27 29 34 34 29 22 28 52 41 18 16 16 16 16 18 16 15 19 20 22 23 25 24 23 22 23 24 25 28 30 33 32 43
54 43 35 36 37 34 29 28 26 26 27 30 29 27 28 31 32 27 22 21 43 54 22 20 22 23 20 23 19 20 20 25 30 32 32 29 29 24 27 30 30 28 34 51 54 61 59
58 43 36 39 38 33 28 26 25 25 26 28 29 28 27 30 29 23 17 29 43 30 26 22 22 24 23 22 23 28 26 26 29 38 37 42 50 30 26 31 31 31 33 51 56 69 58
52 41 39 42 39 32 29 24 24 24 25 26 26 26 24 24 25 20 22 46 42 31 25 23 24 31 27 26 28 31 31 28 28 32 41 43 40 29 19 23 30 36 31 29 44 45 51
49 42 43 44 39 32 30 24 23 23 24 25 24 23 22 21 23 19 34 46 37 26 27 23 27 32 36 27 29 33 31 32 31 34 32 36 33 27 32 34 31 29 28 39 44 49 44
50 45 46 45 38 35 30 25 23 21 23 24 23 22 22 21 20 22 38 44 30 26 25 25 32 38 44 33 37 39 37 34 31 27 25 33 34 32 32 30 30 34 37 32 33 45 53
50 48 49 45 38 38 32 27 25 21 22 22 24 29 29 20 19 26 31 38 29 24 24 25 34 36 39 36 41 40 42 37 30 31 28 28 32 38 31 30 26 27 32 33 47 47 57
50 52 51 44 39 40 35 30 26 20 20 21 28 38 37 17 24 29 38 34 29 20 23 25 34 35 36 37 43 43 41 36 32 30 32 28 30 44 41 38 30 30 32 34 41 46 47
52 56 52 44 41 43 38 33 26 20 19 29 43 45 36 20 29 32 38 36 32 26 27 27 33 34 39 41 39 41 41 35 26 21 23 29 26 31 41 30 28 27 27 31 41 56 51
56 58 56 46 43 44 41 36 27 21 24 45 52 45 31 21 40 38 46 33 30 30 28 30 34 36 36 39 39 42 40 30 25 21 24 27 35 30 28 25 26 26 27 29 32 38 51
59 61 57 47 44 46 45 39 31 23 43 51 57 54 23 23 39 37 40 36 34 31 29 30 35 42 41 40 39 40 36 30 31 27 26 26 39 29 30 31 31 29 30 30 31 36 40
62 61 58 52 45 47 48 43 38 33 44 49 60 54 31 41 30 42 41 35 36 35 31 32 39 46 46 42 37 36 34 30 31 29 31 33 36 39 43 37 39 44 35 33 35 39 44
63 60 59 53 49 46 49 47 44 41 41 43 40 41 37 39 41 35 37 35 39 37 36 38 40 45 45 42 38 37 34 31 31 33 33 32 39 42 46 41 42 38 31 31 36 40 44
63 61 62 54 51 49 48 49 47 46 45 44 42 40 36 41 38 37 36 39 42 40 40 39 39 44 47 42 38 34 38 31 35 34 37 36 38 45 50 49 35 33 32 35 39 44 49
64 61 62 61 54 49 47 50 50 47 43 42 41 40 36 35 37 38 37 41 45 45 46 46 46 47 47 46 40 42 45 36 40 37 39 42 41 44 51 50 50 40 38 38 42 52 54
63 60 59 61 59 54 48 45 45 47 44 41 38 37 38 37 37 39 44 44 44 47 53 53 52 51 47 47 47 45 43 37 44 46 47 49 49 50 51 52 45 34 38 38 52 49 56
63 62 58 59 59 55 51 46 45 45 46 44 40 40 39 40 41 44 46 45 46 49 54 53 54 52 55 52 47 43 46 42 41 40 43 43 50 52 52 56 54 34 39 44 44 51 59
63 63 61 58 59 57 53 49 45 42 44 46 46 43 41 39 39 47 51 54 53 52 50 53 48 48 47 49 46 45 44 47 45 44 37 44 40 47 45 44 36 41 44 46 45 52 63

GFSGBSN_prec_cthk_012.txt.gz
RH
22 20 24 24 26 28 31 34 27 26 26 24 28 30 28 27 26 22 23 21 19 20 24 32 30 31 32 33 25 21 20 20 24 22 27 32 37 37 35 32 31 27 26 25 23 21 20
21 21 24 26 25 25 32 33 26 27 25 25 30 32 31 28 26 24 22 24 19 23 30 32 30 37 38 33 24 22 25 26 29 30 33 36 37 36 33 32 31 27 20 19 23 22 12
21 21 22 24 26 27 35 29 26 26 25 28 32 33 30 25 23 21 23 23 24 29 31 29 34 39 33 29 23 25 30 28 32 35 38 32 30 33 29 27 25 23 11 7 10 13 8
20 20 20 25 28 33 32 27 26 26 27 31 31 30 30 24 22 26 25 27 30 31 29 27 32 34 32 31 24 27 25 25 28 33 34 33 31 29 26 22 18 15 17 25 25 22 17
20 20 22 26 35 35 31 28 26 26 29 30 27 29 26 21 28 28 29 31 29 23 22 28 30 30 28 19 16 16 18 21 25 28 31 29 31 30 25 22 29 28 23 28 28 29 26
21 21 25 28 36 33 31 27 28 28 30 25 29 31 24 26 30 32 31 24 22 22 22 25 30 26 20 17 12 14 15 16 19 22 19 29 29 27 26 27 33 35 32 28 32 31 29
23 24 26 30 33 35 29 28 29 31 30 23 32 33 33 28 32 25 22 23 21 20 21 27 28 23 18 16 14 11 13 15 17 15 27 30 32 34 34 36 37 38 35 34 37 34 33
23 26 29 32 35 35 28 29 30 32 28 22 26 29 26 28 25 24 25 31 33 34 30 28 24 21 22 19 16 13 13 18 23 36 36 33 36 36 35 34 39 41 37 38 35 32 32
26 29 31 34 36 31 29 30 31 31 26 21 24 23 26 26 26 33 39 38 36 32 33 26 23 22 22 20 17 19 22 25 30 33 31 34 33 35 37 40 38 37 40 37 35 32 28
28 31 33 36 34 30 30 32 32 30 24 23 25 26 27 27 34 37 38 38 36 31 30 23 17 20 20 19 15 15 20 26 26 28 27 31 32 28 24 26 27 29 37 38 35 26 28
31 33 34 38 34 31 32 33 32 30 26 25 26 27 27 29 36 38 40 35 29 28 37 20 21 16 18 20 13 15 21 24 24 25 26 29 31 31 28 25 22 24 22 23 22 24 27
33 33 36 39 35 32 33 33 31 29 27 26 28 28 27 32 38 38 34 27 29 47 33 23 18 16 19 21 19 13 23 26 28 27 28 31 29 27 25 25 25 24 25 31 32 32 41
35 36 38 41 37 32 34 33 30 28 28 27 29 27 27 32 36 31 28 26 44 53 24 20 20 19 20 18 17 17 22 25 28 28 26 29 25 24 26 28 26 26 32 47 51 55 55
38 37 41 43 37 33 35 33 28 27 28 29 28 28 29 29 33 29 27 37 51 30 26 21 24 25 26 24 26 24 24 30 29 33 36 41 38 27 26 31 30 28 33 50 53 60 57
41 39 45 43 37 35 36 32 27 25 28 30 29 29 28 26 29 26 25 50 43 32 25 24 27 28 26 26 27 28 29 28 34 37 37 45 35 25 25 28 32 31 31 30 41 46 52
43 45 51 44 38 38 35 28 26 24 27 27 29 28 24 24 27 23 34 48 37 27 24 23 24 27 30 24 28 30 33 29 31 36 39 38 31 28 30 29 25 23 25 34 37 41 43
48 57 56 43 41 40 34 27 25 23 26 26 27 26 23 23 25 21 42 44 32 27 25 23 30 33 39 32 32 33 33 32 32 31 33 35 29 33 31 29 28 29 29 30 33 41 48
54 64 51 44 44 42 33 27 24 24 26 26 26 27 23 24 24 26 32 43 31 28 25 28 29 37 39 39 41 40 41 35 31 29 29 33 33 39 31 27 26 26 28 29 40 38 50
63 62 48 48 47 44 33 29 24 23 25 24 25 34 30 24 25 28 29 36 31 28 27 26 31 38 39 40 45 42 43 37 31 30 30 30 32 43 40 37 29 29 27 31 34 39 37
66 59 52 49 50 44 34 30 24 23 24 24 28 41 37 27 24 23 37 33 33 26 26 24 30 37 37 38 39 44 41 35 28 26 29 30 32 31 38 30 27 25 26 31 33 47 43
66 59 53 51 51 43 36 32 25 22 23 26 40 38 32 24 22 27 38 36 32 28 25 24 27 35 36 39 41 43 39 35 26 24 28 30 31 29 27 28 26 26 26 29 31 34 40
65 59 55 54 51 43 38 34 26 22 24 40 45 41 33 23 23 29 44 35 32 30 28 28 28 32 39 39 37 41 36 32 25 26 28 30 35 27 27 30 32 28 27 29 29 29 33
66 60 59 54 50 45 40 34 27 25 36 43 50 43 28 27 33 36 44 39 33 34 29 29 32 36 44 43 39 40 38 36 30 29 32 29 35 33 37 38 36 36 31 30 29 31 32
66 65 61 54 49 47 42 35 29 36 41 55 58 48 35 36 42 37 39 39 38 37 35 35 34 37 43 45 44 40 39 38 35 36 33 34 40 40 40 37 35 31 28 29 32 35 38
68 68 63 58 50 50 47 40 31 45 52 57 61 47 36 43 38 39 41 43 41 42 41 38 35 37 42 44 48 46 47 40 39 39 39 34 38 46 41 46 30 28 31 32 32 36 41
71 69 65 60 51 50 50 48 39 41 45 43 42 40 37 33 40 41 40 40 43 42 42 42 38 40 42 49 48 51 48 34 41 39 39 42 39 40 51 38 36 28 31 33 33 42 41
72 68 65 61 55 49 50 51 50 46 42 41 40 39 36 35 37 40 41 41 42 44 45 45 45 47 46 51 58 54 52 42 47 44 43 47 48 46 52 50 39 29 33 35 45 36 42
73 67 66 60 56 53 48 47 50 49 47 44 39 38 38 38 39 40 40 40 42 41 46 46 50 49 53 52 53 53 54 48 45 41 41 41 47 51 52 52 45 29 36 40 35 37 42
72 68 66 66 59 55 50 46 44 45 44 41 38 38 36 36 39 43 44 43 44 45 45 49 47 47 48 52 53 55 53 54 48 47 38 38 34 41 40 38 30 32 34 37 39 42 47

GFSGBSN_prec_cthk_015.txt.gz
RH
22 20 22 21 20 22 22 21 23 27 31 25 25 24 26 28 27 26 22 19 22 21 20 19 30 29 28 32 28 26 25 24 24 29 24 25 36 39 39 36 34 28 27 28 25 28 27
23 21 21 21 21 22 21 21 24 29 29 25 24 24 28 30 29 27 24 22 21 20 20 28 34 33 34 31 28 26 26 27 36 32 31 36 40 42 39 36 33 28 24 24 23 23 21
24 22 21 21 21 21 21 22 26 31 24 24 23 27 31 32 29 26 24 23 23 20 26 33 38 39 35 29 27 27 29 32 33 32 37 35 37 38 35 34 28 25 23 15 21 21 14
25 21 20 20 20 20 22 24 30 26 23 24 26 30 29 30 26 22 23 22 25 26 31 33 43 39 31 25 25 28 30 35 35 40 41 39 39 36 32 30 28 26 15 25 20 16 12
26 21 19 20 20 21 24 28 30 26 23 25 28 27 27 29 24 23 26 27 30 32 32 36 36 30 31 26 24 25 31 33 35 39 39 38 38 35 30 28 25 25 28 28 29 26 24
28 22 21 21 22 22 25 29 29 26 25 27 28 25 28 24 26 29 31 33 34 26 28 33 34 31 30 26 19 26 27 29 36 38 32 33 33 33 31 24 24 23 32 27 30 28 27
29 25 23 22 24 25 27 29 30 25 26 29 27 31 27 22 30 31 35 33 25 26 29 28 33 27 23 18 16 19 20 23 35 31 26 32 34 31 25 24 26 26 31 30 32 29 32
29 27 24 23 25 27 27 29 30 25 29 28 23 32 31 31 37 39 27 35 34 30 29 30 28 23 21 19 15 13 16 20 25 28 27 32 29 26 29 37 39 39 33 31 33 35 33
30 29 26 24 27 28 29 31 27 25 30 26 20 30 30 32 30 27 37 35 35 32 36 30 24 23 21 17 15 14 14 19 24 29 29 30 32 39 41 42 40 40 39 38 38 38 39
34 29 26 26 28 29 31 30 26 27 30 24 22 28 27 28 27 36 35 38 35 33 33 26 24 23 23 21 18 16 21 26 28 30 30 34 33 35 37 35 37 39 38 38 39 40 44
36 31 27 29 30 31 33 28 28 30 29 23 23 26 27 27 37 36 40 36 35 33 36 21 20 20 20 20 18 25 28 30 30 29 31 36 36 34 29 26 27 30 30 34 36 41 39
38 30 31 32 32 33 35 28 29 32 29 24 25 27 27 33 34 38 38 33 31 43 32 22 22 17 20 19 17 20 27 28 29 33 33 31 29 29 28 26 25 27 30 33 36 36 46
39 31 35 35 33 35 36 29 30 33 29 25 26 28 29 35 35 37 33 29 39 53 25 22 19 18 23 21 18 19 28 30 31 34 35 30 29 28 29 27 26 28 32 46 48 50 52
40 35 39 38 36 38 36 30 31 34 29 26 28 29 30 35 37 33 31 34 48 36 25 20 21 21 21 21 22 24 28 29 28 28 34 34 30 26 29 31 29 29 34 49 46 54 48
43 39 41 39 40 38 39 31 32 34 30 27 29 30 30 34 36 32 34 45 48 34 25 22 26 28 26 26 24 24 26 27 28 31 36 38 32 26 30 30 30 28 32 34 45 51 54
41 43 42 41 41 40 40 32 32 33 30 28 29 31 29 33 31 32 41 53 42 30 27 27 27 27 28 28 29 30 29 28 32 34 35 41 35 28 29 30 28 26 27 34 38 38 40
41 46 44 42 43 45 37 33 33 31 29 30 30 30 29 29 29 32 44 51 39 31 29 27 26 30 33 29 30 33 35 32 31 37 40 40 33 32 33 31 29 28 26 29 33 39 44
48 48 45 45 49 45 36 34 33 29 29 30 31 31 29 27 27 34 43 45 34 31 29 28 28 31 40 38 34 36 37 33 33 36 39 40 40 41 31 27 25 24 25 25 36 36 46
54 51 48 49 51 46 37 35 32 29 28 28 30 34 30 26 28 32 35 40 35 31 29 29 30 33 40 44 45 42 41 41 32 32 35 35 37 45 39 33 27 27 27 31 31 35 38
59 55 54 57 55 46 39 36 30 29 28 29 30 40 33 29 23 24 27 39 33 31 29 28 30 35 41 45 46 47 44 41 30 30 32 33 35 33 36 31 28 26 28 30 31 41 38
60 58 57 62 57 46 41 36 30 29 28 29 31 36 28 30 27 27 24 36 33 30 27 27 28 32 40 45 44 45 44 38 29 31 31 31 33 32 31 29 25 24 25 30 32 32 35
62 58 65 62 52 48 43 36 30 27 28 30 34 37 30 25 21 28 32 36 34 29 27 24 25 31 38 40 38 45 41 35 30 29 30 35 37 30 32 31 30 26 26 28 28 28 32
60 60 66 58 53 49 45 37 29 27 28 31 41 38 30 31 23 28 33 37 32 30 31 28 29 31 34 42 40 39 38 34 32 28 30 32 36 33 30 36 32 28 26 27 26 26 27
61 63 64 60 56 51 47 38 29 26 26 38 45 40 32 35 22 27 33 36 34 32 31 29 29 31 34 40 44 43 41 40 39 37 31 35 40 38 38 36 32 22 25 26 27 27 31
63 68 64 60 58 54 48 36 28 26 33 46 44 45 33 36 30 31 35 40 37 38 38 38 34 34 35 37 46 47 51 44 44 46 39 34 38 45 42 43 30 23 27 29 30 29 33
69 68 64 62 62 56 46 36 29 30 38 64 57 45 37 34 42 41 39 39 42 42 43 41 40 38 38 42 44 44 45 39 45 44 44 41 36 37 51 39 34 23 27 28 30 37 32
73 70 65 65 63 56 48 38 35 36 58 67 63 51 38 40 46 43 43 43 39 41 44 44 43 43 41 48 53 53 51 43 49 47 51 51 50 44 53 45 36 24 29 31 40 30 32
75 70 66 66 68 56 52 40 39 41 48 60 60 46 39 35 39 40 38 36 36 39 43 42 46 46 48 53 53 54 55 50 49 45 48 49 51 51 51 52 38 25 33 36 30 29 35
74 70 69 68 65 64 54 50 43 41 42 43 41 39 37 37 39 39 39 38 38 42 42 46 44 45 47 50 52 53 53 55 51 51 46 48 41 44 41 37 27 29 29 30 33 36 41

GFSGBSN_prec_cthk_021.txt.gz
RH
44 33 28 27 25 22 20 18 18 18 19 21 20 22 23 24 22 21 25 26 25 23 21 21 21 22 27 31 28 27 25 24 24 22 19 18 22 28 33 37 39 40 40 39 39 43 49
52 42 34 30 27 23 21 19 19 19 20 20 20 24 23 22 20 23 28 30 26 23 18 18 21 26 31 36 29 28 26 26 26 23 26 31 31 40 41 41 37 37 38 34 37 41 48
57 51 40 33 29 24 22 21 20 19 20 21 21 26 22 20 22 26 28 29 28 24 22 20 22 26 37 35 29 29 29 29 29 31 36 34 39 41 41 41 38 35 31 29 32 34 42
51 54 48 40 32 26 23 22 21 20 20 21 24 26 22 22 23 26 27 27 27 24 23 21 24 35 39 34 29 31 30 35 39 42 40 42 44 43 41 39 34 29 22 23 23 30 34
45 51 50 43 36 29 25 25 22 21 21 22 26 26 23 23 25 25 25 26 23 24 24 26 33 42 38 32 31 33 38 36 41 46 46 46 45 44 40 38 36 26 24 21 23 27 21
35 47 50 45 37 33 26 24 22 22 22 24 26 25 23 25 26 25 25 25 24 27 30 32 43 44 37 35 30 37 34 40 45 46 46 45 43 41 37 34 32 29 31 27 21 22 20
31 45 46 48 42 33 27 24 23 23 23 25 27 24 25 26 25 23 25 31 34 33 33 38 36 37 34 33 30 33 32 39 47 42 44 43 42 39 36 34 28 27 29 32 29 31 36
35 32 40 44 45 34 28 25 24 25 25 27 26 23 25 26 23 26 33 39 38 35 33 32 35 35 32 34 28 33 33 39 48 45 43 42 41 38 38 34 30 29 33 36 36 36 33
25 36 35 40 43 36 28 25 26 27 26 28 27 24 24 25 26 33 43 41 45 34 35 34 38 35 34 34 28 28 34 40 36 40 39 42 41 39 38 37 35 35 40 41 41 42 39
18 34 36 39 42 38 28 25 28 29 27 28 27 24 24 27 34 44 38 42 38 37 38 35 34 30 28 24 23 24 30 37 39 43 36 39 40 40 42 41 42 40 39 41 43 44 45
16 29 41 42 42 40 26 25 30 30 29 28 26 24 27 30 41 36 34 40 37 40 43 29 29 27 28 22 19 22 27 34 41 41 40 39 37 44 43 42 42 45 43 40 36 36 37
20 28 49 37 43 44 26 25 32 30 31 29 26 25 30 33 40 33 37 37 35 41 46 28 26 25 25 23 20 22 24 28 39 44 41 38 35 36 39 38 38 39 37 40 40 37 37
25 31 42 49 50 44 27 27 34 31 32 29 26 28 31 36 36 37 34 35 37 43 32 28 27 27 28 26 23 25 29 32 33 38 37 32 35 37 37 39 37 33 31 38 40 41 38
34 38 51 50 55 44 28 32 36 34 33 30 28 33 33 36 39 36 34 34 37 37 35 27 25 24 30 27 29 29 31 34 33 34 39 36 37 33 32 32 31 30 30 38 40 44 39
44 38 54 67 74 43 31 38 39 37 34 31 32 35 34 39 41 35 33 40 37 43 29 25 25 25 27 25 25 31 32 33 34 34 36 36 34 32 30 31 30 31 31 33 42 48 45
48 47 65 82 78 43 37 44 41 40 36 32 34 36 34 41 38 34 38 40 39 38 28 23 23 24 26 26 24 27 30 32 31 31 31 32 34 30 28 32 33 32 31 36 39 40 36
54 61 71 80 75 46 46 50 45 44 38 37 39 41 39 38 37 34 41 37 43 38 30 23 25 27 26 26 28 28 30 29 30 30 30 30 35 37 31 32 33 35 34 32 32 34 30
55 77 87 99 68 51 58 52 50 47 42 40 45 46 41 36 38 38 40 37 46 37 30 29 28 29 30 32 33 33 32 30 30 30 32 36 42 46 36 32 33 32 29 27 30 29 36
60 95 98 92 66 59 68 58 53 49 45 41 50 47 43 33 39 38 38 41 44 36 33 31 30 31 37 45 45 36 35 34 33 31 34 37 46 50 41 34 33 29 28 26 27 30 32
85 95 98 84 70 71 67 59 55 53 49 47 51 50 46 36 33 34 38 42 44 39 36 33 34 34 38 48 51 50 44 39 37 36 34 38 44 41 38 32 30 30 30 28 28 32 28
94 96 93 80 77 75 63 59 56 53 52 54 50 46 40 41 34 34 35 42 44 42 36 33 34 34 37 45 51 52 50 44 42 42 37 34 38 39 38 36 31 26 27 30 27 25 28
90 98 91 83 77 71 63 63 54 51 56 57 48 44 36 36 31 33 35 42 45 42 38 33 34 34 33 42 46 52 47 38 35 42 39 35 36 36 38 38 35 31 27 26 28 27 25
95 96 87 81 77 66 66 59 50 50 51 56 49 41 31 39 37 34 34 38 43 42 40 36 31 31 34 38 43 43 41 38 37 38 38 36 37 35 35 36 33 32 25 25 25 24 23
97 88 87 83 70 64 61 54 51 48 50 51 54 42 35 39 39 33 31 32 38 39 38 36 30 29 30 33 34 41 40 40 39 37 33 33 34 34 36 35 33 21 23 23 24 24 24
92 91 85 73 65 61 57 53 50 51 50 50 47 38 36 42 36 33 32 30 37 39 38 33 34 31 32 33 38 43 49 46 46 44 40 36 35 39 39 34 25 18 20 24 28 23 23
94 82 73 67 61 58 54 53 51 52 50 50 47 40 40 40 37 31 32 30 37 38 38 37 35 34 33 35 38 42 46 40 38 45 46 44 41 41 45 37 36 24 22 26 28 33 24
83 74 68 63 59 58 59 53 52 51 50 48 47 44 43 43 40 33 30 29 33 37 39 38 38 39 36 37 43 40 38 37 37 40 50 53 52 47 50 46 36 29 31 33 36 32 28
75 72 69 66 66 67 62 55 50 49 46 46 48 51 50 45 43 37 29 28 32 35 39 39 42 42 42 43 44 42 44 40 39 37 43 41 49 51 50 49 43 30 34 37 32 31 30
80 76 74 77 75 71 62 56 47 44 44 43 58 64 66 51 43 36 35 37 40 41 36 38 41 40 40 45 44 44 49 48 44 43 42 42 40 43 40 37 31 32 33 33 34 35 36

GFSGBSN_prec_cthk_024.txt.gz
RH
44 57 54 42 33 29 27 24 21 20 19 17 18 20 20 20 22 20 18 21 24 26 24 21 20 20 22 30 32 26 24 23 24 24 23 23 24 25 21 24 31 33 38 39 43 50 50
42 48 57 54 41 33 30 27 23 21 20 19 18 20 21 21 22 19 19 24 27 26 25 21 16 20 27 34 32 27 26 25 24 25 24 23 24 24 24 36 39 39 41 39 42 46 57
35 40 48 57 52 39 31 30 25 23 22 21 20 20 22 23 22 19 20 25 26 26 26 22 19 20 27 37 31 28 29 28 29 33 31 30 33 37 38 42 40 40 37 38 40 45 51
29 37 39 46 55 47 36 33 29 23 22 22 21 22 23 24 21 19 23 24 24 26 26 24 22 24 35 35 30 30 30 30 35 38 35 40 41 44 44 41 38 36 32 31 30 37 40
26 33 35 35 49 50 41 35 32 25 24 24 23 22 25 23 20 21 24 24 26 24 23 25 24 29 44 35 31 32 32 40 41 44 45 39 45 46 44 41 37 31 27 28 27 30 32
16 31 31 37 35 48 43 35 32 27 25 26 24 24 26 22 21 23 24 23 25 26 24 27 28 41 39 34 32 34 35 40 47 46 49 45 48 45 40 39 36 29 29 23 24 30 24
16 20 30 32 30 43 46 36 32 28 27 28 25 25 27 21 22 23 22 24 29 32 30 30 34 41 37 34 34 34 38 44 50 47 50 47 50 45 39 37 36 31 34 30 24 25 25
15 15 23 29 34 34 45 40 32 28 28 29 27 26 27 22 23 23 24 30 32 34 34 33 40 39 35 32 31 39 37 42 49 48 44 48 47 44 42 37 31 29 31 37 38 36 32
14 15 20 24 30 33 40 42 33 28 28 30 28 27 26 21 22 24 29 38 39 39 41 37 35 33 31 30 30 35 38 44 48 45 48 47 45 39 39 37 34 33 35 40 40 37 36
13 17 14 25 27 29 37 42 34 29 30 33 29 27 26 20 24 31 36 40 38 42 36 33 34 34 32 36 31 30 36 44 41 47 44 48 44 44 39 39 37 37 37 38 41 41 42
13 14 19 20 26 33 35 41 34 29 32 35 32 27 25 21 31 37 43 39 39 37 43 33 33 30 29 29 27 27 29 39 41 41 40 42 42 44 44 42 40 40 38 36 32 39 39
20 18 18 18 25 27 33 42 35 27 32 37 33 28 25 24 38 41 43 40 39 40 42 28 28 26 27 24 23 25 27 33 39 43 44 44 41 38 41 42 39 38 39 44 41 41 40
23 22 21 21 28 29 36 45 35 27 34 38 34 29 23 30 43 42 43 39 38 43 33 27 26 24 27 25 23 24 26 30 39 48 46 42 39 37 37 38 41 38 41 38 41 38 33
33 32 27 23 27 29 41 47 36 29 36 39 35 30 25 33 44 48 41 38 38 28 34 25 24 26 29 26 24 24 26 29 32 38 43 38 40 32 40 40 36 37 41 36 30 32 31
42 33 32 32 28 29 43 52 37 32 40 40 36 31 29 36 47 49 41 38 30 30 35 27 27 28 32 29 27 30 32 33 33 32 35 34 35 35 35 34 32 33 32 32 34 39 37
47 42 39 37 35 42 48 57 37 35 43 41 36 32 33 41 48 46 42 33 28 35 34 26 25 23 26 26 26 30 32 33 35 35 33 33 36 32 31 31 30 30 29 31 32 40 32
54 47 44 47 43 56 51 63 39 41 47 45 41 39 37 45 51 51 38 31 29 39 33 26 25 24 25 26 22 26 30 31 31 31 29 27 28 31 29 28 30 32 30 30 31 31 25
61 53 51 50 47 50 66 73 40 48 52 49 43 43 41 48 57 43 35 30 34 39 35 26 24 27 23 23 25 24 26 26 26 26 27 27 31 36 36 33 28 29 31 29 26 26 30
71 58 60 56 59 71 75 78 46 54 52 47 44 50 50 54 50 41 33 30 38 40 34 29 28 29 30 31 33 31 29 29 27 27 29 28 34 39 40 36 32 31 29 25 25 25 25
75 62 59 64 79 82 68 76 56 62 59 54 50 54 60 55 43 35 32 34 39 43 36 33 31 31 33 38 41 43 32 32 31 32 30 31 32 37 42 35 31 32 29 25 22 27 22
72 68 64 67 86 93 95 72 66 73 64 58 54 53 56 51 40 35 33 34 39 44 39 36 33 30 31 39 46 48 45 39 37 38 37 33 34 38 40 37 33 28 25 24 23 22 25
73 69 62 91 97 98 95 86 81 81 71 62 55 56 63 44 35 33 36 37 40 47 40 36 34 32 34 36 38 46 44 44 41 40 39 37 36 36 37 35 33 31 26 24 24 23 23
73 57 83 91 97 98 95 87 84 77 64 60 55 52 49 45 35 34 32 37 41 50 44 37 34 34 34 34 39 46 46 43 40 37 41 40 36 35 33 34 33 38 27 24 23 23 24
72 80 85 93 96 88 87 84 81 71 63 61 63 53 46 46 37 33 33 38 43 48 48 39 35 32 33 35 36 40 41 41 39 38 38 38 35 37 39 36 48 21 21 21 22 22 21
83 91 98 95 91 89 83 84 79 69 67 60 56 49 41 48 39 37 33 36 45 48 52 43 39 33 31 31 33 37 43 49 45 41 38 34 34 41 47 32 23 17 19 21 25 21 23
91 99 96 99 98 90 85 81 71 70 66 61 56 47 41 39 37 36 34 37 41 48 47 44 41 34 32 35 38 42 42 37 41 45 44 41 39 38 44 52 55 25 25 27 28 29 24
98 97 98 97 90 87 82 74 68 67 63 64 59 50 45 40 38 36 34 35 36 42 42 41 41 37 34 38 49 45 39 34 34 37 47 47 49 51 46 51 34 28 27 29 32 31 28
95 96 92 86 83 80 74 67 65 60 61 63 56 51 44 44 44 41 36 33 32 37 38 38 40 39 39 46 47 41 44 35 33 31 36 39 46 51 46 55 51 27 31 35 32 30 30
93 90 84 80 76 70 65 64 61 58 60 64 55 51 43 42 49 45 39 32 29 35 39 39 37 34 38 43 43 44 48 45 39 38 36 38 36 38 36 35 31 32 31 33 35 35 37

GFSGBSN_prec_cthk_027.txt.gz
RH
39 41 47 51 57 50 36 30 29 27 24 22 20 20 19 18 18 19 19 18 17 21 24 22 22 18 19 29 34 32 23 21 24 27 26 26 28 29 28 30 28 32 39 38 42 53 47
29 36 41 43 50 57 50 36 30 28 26 24 22 21 20 19 18 19 20 17 18 23 25 23 22 16 21 32 34 32 24 23 24 24 32 28 31 31 29 27 31 38 39 37 38 52 51
24 27 35 38 45 52 55 45 35 31 28 27 24 23 21 20 20 21 19 17 20 22 23 24 22 20 23 32 35 33 28 28 28 27 38 30 32 30 33 35 39 40 39 41 43 51 43
15 21 28 36 38 41 52 53 41 35 31 29 26 23 22 22 21 22 18 20 21 21 24 23 24 23 26 34 36 33 32 33 34 37 33 32 32 31 36 43 41 40 39 41 43 46 49
12 13 22 33 32 39 38 52 47 37 33 31 28 24 24 23 23 21 19 21 21 21 22 21 24 28 34 38 35 33 33 36 43 37 36 37 39 40 43 44 40 40 37 36 33 35 35
14 14 14 24 27 30 33 44 48 39 35 32 29 26 26 24 23 21 20 22 21 21 22 24 26 31 37 43 37 33 32 44 50 45 45 43 47 48 45 44 44 38 33 31 33 31 39
13 16 17 15 23 32 31 35 45 40 33 32 30 28 29 26 23 21 21 22 23 28 24 29 33 38 42 38 33 35 34 45 51 53 53 47 50 50 43 46 42 36 39 26 29 29 31
12 17 14 18 18 27 26 31 44 42 33 31 30 30 31 26 23 21 21 28 40 44 36 26 31 34 39 36 35 38 34 44 50 59 51 49 50 52 47 44 38 34 33 34 30 21 24
17 17 18 16 18 20 26 27 36 44 35 30 31 32 32 28 23 20 20 27 37 37 44 38 36 37 38 36 31 41 38 43 48 52 53 57 54 49 46 40 38 36 35 38 36 32 29
17 17 15 15 15 19 25 28 33 41 36 30 32 35 33 28 24 21 27 32 37 39 51 40 34 32 30 31 32 39 39 45 46 54 52 64 53 44 41 44 41 42 33 39 37 34 37
15 16 16 14 15 14 21 29 33 43 36 29 33 37 34 30 32 26 41 41 44 42 58 39 38 35 33 29 37 28 35 38 45 41 44 62 48 46 45 48 35 58 37 37 38 33 53
18 16 15 14 14 14 17 20 29 40 39 28 34 39 37 30 25 33 40 46 47 49 56 33 32 29 30 32 32 39 31 34 49 47 44 62 42 44 43 37 36 38 38 37 36 37 40
26 23 16 16 16 16 18 19 32 42 41 26 34 42 38 30 33 39 44 51 47 51 42 28 28 28 27 29 30 30 30 31 37 44 45 44 44 39 37 38 38 37 41 46 50 46 42
34 28 25 19 18 17 19 20 32 43 45 27 34 43 39 30 38 43 52 51 55 35 40 26 27 28 26 31 26 26 32 31 32 42 48 44 42 35 35 38 46 38 44 51 44 39 34
40 38 33 23 19 21 20 23 33 46 48 30 37 44 38 29 37 46 58 54 40 36 36 23 24 26 26 28 27 26 28 34 35 31 51 44 50 41 34 35 36 43 35 37 43 43 33
50 44 40 34 29 23 21 23 29 45 51 32 40 46 37 33 41 55 58 47 38 40 33 25 26 27 32 29 25 25 29 39 36 28 34 44 48 37 33 33 31 30 36 33 31 40 36
53 54 51 46 37 33 29 25 32 50 55 32 49 51 36 39 45 57 54 40 39 34 30 27 27 28 32 31 25 29 38 36 30 32 33 39 35 46 35 30 34 38 28 26 33 40 41
63 62 62 55 45 43 32 29 41 56 57 38 55 51 46 40 53 54 48 38 39 35 34 29 28 29 27 30 26 31 40 38 31 32 31 34 35 40 37 33 27 29 35 35 34 35 31
77 76 73 61 52 46 41 36 49 63 53 46 59 56 58 46 54 57 48 37 44 40 35 29 25 32 28 28 30 27 28 36 32 28 30 28 25 38 39 30 27 25 25 27 31 31 28
84 87 85 71 59 52 45 41 60 71 54 54 63 59 63 56 52 54 52 39 38 40 39 32 27 34 30 36 35 37 35 29 27 27 26 27 26 33 42 50 42 35 29 29 28 29 23
87 86 85 77 63 54 51 46 69 78 59 67 69 50 48 50 51 59 49 42 32 38 39 35 35 31 35 38 40 41 41 33 31 31 31 31 32 35 34 38 40 33 31 28 26 23 26
91 87 80 73 67 62 55 55 82 87 70 79 66 57 54 55 49 56 49 41 35 41 39 35 36 32 35 40 38 48 47 45 40 39 37 35 36 36 36 35 37 34 29 26 24 22 22
78 80 78 72 63 62 74 79 87 95 78 72 73 63 59 62 54 47 44 40 38 51 44 42 35 38 38 40 37 39 50 47 47 45 40 40 40 39 34 34 32 37 27 25 25 24 26
69 67 70 73 61 69 88 84 86 93 66 75 78 70 70 69 56 41 44 42 42 52 46 42 43 40 38 35 33 37 45 48 46 44 41 40 43 44 40 41 52 22 22 21 22 22 24
59 65 71 78 58 78 91 85 77 91 75 88 93 72 75 70 58 42 42 42 46 53 60 49 42 37 35 34 34 40 43 47 40 38 37 38 41 43 51 34 26 22 19 22 23 22 24
62 75 76 65 64 87 98 95 84 97 84 81 89 81 71 59 52 40 43 40 51 54 58 55 48 41 37 35 37 37 40 34 46 48 41 39 39 39 39 53 57 31 25 23 24 28 27
75 79 73 76 90 98 98 94 98 93 86 90 92 73 68 50 54 42 39 38 48 51 52 56 52 45 37 37 46 43 40 33 38 40 49 49 50 50 46 52 37 29 27 25 30 36 32
82 82 82 94 96 96 85 91 87 84 85 87 86 64 57 56 52 43 41 38 42 49 54 54 52 48 44 42 47 43 46 38 36 31 36 39 45 51 48 56 49 28 28 30 37 31 31
98 96 96 96 94 98 97 92 91 83 85 90 82 58 57 56 50 45 39 36 42 44 48 50 45 42 39 40 43 48 48 44 38 39 33 40 36 41 36 39 38 31 31 31 32 32 34

GFSGBSN_prec_cthk_030.txt.gz
RH
32 34 37 44 46 47 57 54 41 33 30 28 26 25 22 20 20 19 17 18 19 17 15 18 21 20 20 24 27 36 28 21 21 24 27 31 32 32 35 37 34 31 38 37 41 48 51
21 26 32 35 40 43 46 57 54 40 34 30 28 26 24 22 22 20 18 18 19 17 17 18 20 21 20 23 33 34 28 22 20 22 30 28 31 35 39 36 33 28 40 41 33 50 47
18 19 21 27 30 40 41 47 57 51 39 34 29 28 27 24 23 21 19 20 18 18 18 18 20 22 24 22 30 36 30 26 26 25 30 39 36 38 38 38 35 44 37 37 33 46 51
18 17 16 17 27 28 39 38 53 57 46 37 32 31 29 27 24 22 20 20 18 18 18 18 20 23 24 24 30 33 35 34 32 30 33 43 37 38 38 47 39 43 40 39 39 46 42
17 17 17 16 20 22 32 35 37 53 52 41 36 32 31 30 26 23 21 19 18 18 18 17 21 26 29 28 32 32 31 35 39 40 39 35 34 31 41 43 41 40 44 47 41 39 52
15 15 15 15 14 18 26 32 32 39 51 44 37 34 32 32 28 24 22 19 18 17 18 18 20 27 22 37 36 32 31 35 44 41 40 39 35 34 41 46 54 45 45 43 37 32 40
14 15 15 14 14 13 22 27 28 32 46 45 38 35 33 33 30 26 23 19 28 34 26 20 30 34 39 41 37 31 32 38 47 49 54 45 43 46 53 55 47 41 40 39 33 30 34
14 14 14 14 14 12 13 20 22 32 43 44 36 32 32 34 31 27 23 25 44 43 41 26 25 32 34 37 36 34 34 39 50 52 56 58 47 49 61 51 48 45 42 37 31 19 29
18 16 14 13 13 12 10 16 22 29 35 45 37 31 32 34 33 27 23 19 34 30 35 34 24 29 34 36 34 33 32 36 49 58 58 69 57 56 54 48 38 39 39 41 36 24 14
17 18 17 13 15 14 11 14 17 25 31 42 39 29 32 36 34 27 23 20 32 35 38 36 31 31 34 34 30 37 41 42 52 50 60 61 57 52 47 45 41 43 44 42 41 41 26
17 15 18 19 17 13 11 14 21 24 27 38 39 26 31 38 42 31 46 36 42 41 53 39 38 31 33 31 34 29 35 41 49 50 53 60 52 49 46 52 51 45 40 42 37 39 46
18 17 16 16 17 17 13 11 16 26 32 40 40 26 28 37 36 34 38 43 48 51 48 38 35 34 38 32 34 35 30 32 42 44 49 48 53 57 62 45 40 37 35 35 36 40 58
27 23 19 17 17 16 16 11 13 21 28 43 41 27 26 37 41 38 40 51 53 46 34 40 32 31 35 37 35 37 34 27 33 45 51 42 38 45 41 40 31 30 39 48 70 68 51
29 27 26 26 21 18 17 13 14 19 31 42 44 31 27 35 45 44 48 62 53 34 40 33 30 34 36 40 33 31 37 34 27 36 43 52 50 41 30 34 51 37 36 54 79 81 55
35 37 30 28 25 25 24 18 14 17 30 41 48 34 28 34 41 47 57 70 46 41 33 43 32 34 34 40 32 29 31 30 29 28 47 54 63 59 40 33 31 46 39 42 47 52 44
39 40 37 37 31 26 25 23 17 17 26 44 50 39 28 36 40 52 61 59 41 37 40 44 33 32 32 32 30 30 27 30 36 38 46 59 80 57 42 33 25 27 32 35 33 37 35
49 50 47 37 37 37 31 21 19 21 29 49 51 45 30 39 43 56 58 49 44 38 40 45 32 34 36 42 32 32 32 38 41 44 37 39 68 56 40 33 27 36 34 27 26 42 52
59 59 50 48 45 39 36 33 26 24 37 52 51 46 37 42 47 45 53 42 41 45 41 39 40 42 32 43 36 32 40 40 31 29 29 29 35 39 36 37 29 32 42 37 46 31 39
61 61 56 51 50 50 44 37 33 25 38 54 54 50 57 44 41 43 47 44 42 45 47 35 35 38 32 33 36 30 40 49 38 30 29 36 33 36 35 41 31 24 20 23 37 39 38
63 58 55 57 58 57 50 47 45 30 44 63 57 61 74 58 35 45 43 41 45 43 43 41 36 33 33 26 31 34 35 39 37 33 28 30 30 28 40 41 51 52 37 27 30 44 34
62 59 61 60 65 63 61 50 48 36 53 68 59 46 59 59 47 46 48 43 44 46 42 48 38 31 36 34 31 38 40 41 34 27 24 25 26 25 29 40 52 47 41 37 34 31 35
68 71 75 67 69 72 68 60 56 37 64 73 60 49 50 59 53 50 49 43 45 47 43 50 44 36 39 37 39 44 45 43 36 33 32 32 35 34 38 36 38 36 37 33 29 29 28
75 80 82 85 86 81 74 63 56 45 74 71 60 55 66 57 53 54 48 51 51 49 47 45 40 41 41 47 47 47 50 64 51 49 43 45 40 41 42 35 33 36 29 27 25 26 29
86 92 95 99 90 82 74 63 56 64 84 67 64 67 73 66 53 41 52 55 57 44 62 53 48 49 49 45 42 38 39 50 53 51 50 49 45 49 51 46 48 25 24 24 24 25 26
91 97 97 95 90 74 69 60 54 68 74 72 76 81 83 80 52 57 59 59 53 46 66 56 54 54 51 40 38 39 39 43 48 46 46 45 45 51 62 46 31 27 26 24 25 25 26
86 86 88 83 74 66 61 57 72 75 73 76 82 82 91 87 62 47 53 60 53 52 77 58 58 52 50 43 43 38 43 34 45 44 36 36 42 49 47 55 55 36 30 27 25 32 29
75 70 72 71 68 70 66 50 83 87 84 85 84 92 91 84 77 66 53 53 55 60 75 61 53 48 45 49 49 41 38 36 49 47 56 54 53 56 54 57 45 34 31 28 33 40 34
62 56 61 70 68 70 65 49 83 86 89 82 74 97 98 90 75 71 64 59 58 68 70 60 57 50 50 49 46 43 48 41 35 34 41 42 50 55 53 62 56 30 29 31 38 35 32
45 52 64 77 84 71 58 72 79 89 94 89 87 76 86 98 84 68 65 53 53 73 54 56 52 46 44 46 46 48 50 47 40 40 33 40 37 44 40 44 37 33 33 32 33 33 33

GFSGBSN_prec_cthk_033.txt.gz
RH
25 27 32 34 36 36 41 45 55 54 45 36 32 29 27 26 25 22 21 20 17 16 16 15 15 15 16 19 21 25 25 24 19 19 24 28 34 30 32 34 35 34 36 37 45 48 73
24 24 23 27 32 35 33 39 43 54 55 44 35 31 29 28 26 25 23 21 17 17 16 16 15 15 17 26 29 26 25 25 18 20 26 29 33 36 37 37 36 33 38 41 43 53 63
32 28 23 23 24 29 31 31 38 45 54 54 41 34 31 30 28 27 25 22 18 17 16 16 15 16 16 17 26 29 29 29 23 22 24 30 36 37 39 38 42 40 40 45 38 45 56
23 24 26 27 23 22 24 29 30 34 42 55 50 39 34 32 31 29 28 23 18 17 16 16 16 17 14 21 24 26 32 32 29 27 29 33 39 34 36 37 42 41 38 39 36 43 51
22 23 24 25 22 19 19 25 25 32 33 46 53 43 37 34 33 31 30 23 19 17 16 16 17 23 21 21 25 26 30 33 36 40 44 37 34 33 36 43 41 45 42 38 41 44 45
21 21 20 20 19 18 17 20 22 26 31 36 47 44 38 35 34 33 31 23 18 17 16 16 17 23 16 22 25 30 32 36 42 45 42 42 36 32 42 48 50 44 44 44 45 43 41
17 17 18 19 18 17 17 18 20 23 28 31 40 43 36 35 34 34 32 24 34 36 31 17 22 24 25 28 29 31 34 40 39 43 49 53 46 46 48 52 49 50 46 45 42 36 39
19 16 15 15 15 16 15 15 15 21 27 31 34 42 35 32 34 35 33 25 36 35 32 27 23 26 27 28 31 29 35 38 42 52 50 51 53 54 47 52 54 54 48 47 40 35 34
23 20 20 16 14 14 15 15 14 17 25 25 32 41 34 29 33 34 33 26 35 32 30 19 20 24 27 30 30 30 35 35 44 51 55 61 52 52 51 57 52 54 53 44 39 29 23
20 21 23 23 20 16 15 16 15 15 21 24 31 40 39 28 32 38 36 26 26 31 38 23 29 23 25 30 30 31 38 38 44 50 50 55 56 56 54 50 52 48 52 45 40 39 25
25 20 20 17 22 21 20 19 15 17 20 27 29 32 41 30 34 41 49 36 40 38 55 32 32 28 21 25 24 32 39 45 45 49 50 54 57 56 53 48 47 48 47 44 44 50 50
28 27 22 20 17 19 20 21 17 17 23 25 28 28 38 24 31 45 54 45 44 52 58 36 31 29 26 26 27 33 40 42 46 47 41 48 53 52 49 48 47 42 39 41 47 48 55
35 27 28 25 19 17 18 18 18 16 20 30 34 26 32 24 30 43 48 53 56 63 30 34 32 31 29 30 26 33 38 35 41 45 48 45 47 49 45 47 42 38 40 52 55 64 61
43 35 27 25 25 19 18 18 17 13 18 30 34 39 39 24 34 43 49 58 67 34 33 35 33 32 27 27 30 33 41 39 31 35 48 46 60 60 52 55 55 40 46 63 72 76 59
49 48 35 30 28 26 26 21 18 16 15 24 46 35 46 39 47 55 57 62 50 35 28 35 34 33 28 28 37 32 36 39 32 27 43 47 54 57 53 48 45 47 47 46 59 63 64
47 49 49 37 38 28 25 26 26 19 16 24 40 47 37 36 45 57 56 52 45 34 40 45 41 32 29 29 38 37 34 28 34 31 42 50 54 54 60 48 38 34 46 49 48 43 40
54 51 51 48 36 38 32 30 26 25 19 26 39 52 40 48 38 60 56 51 40 41 46 48 42 37 30 31 37 38 32 30 32 42 48 52 50 57 59 52 37 36 36 36 32 40 50
60 58 57 50 46 45 39 37 37 27 22 29 42 51 42 52 48 52 52 47 36 40 49 48 47 38 28 33 45 38 34 46 39 46 50 49 50 63 55 37 35 32 34 45 50 35 45
62 58 56 54 52 51 49 40 39 35 26 32 48 48 54 48 43 49 45 41 39 46 52 46 44 33 34 37 53 43 40 47 50 49 37 35 39 48 48 45 42 35 30 35 39 42 42
64 57 54 52 56 60 53 49 48 43 32 37 49 59 63 51 35 38 43 32 38 42 53 45 44 34 39 36 46 48 42 45 44 45 40 34 33 36 38 26 40 44 46 36 26 46 40
56 56 51 57 62 62 60 51 50 49 38 43 52 50 48 55 51 40 44 34 39 49 52 47 47 34 36 40 44 44 42 41 38 35 34 34 33 27 25 27 39 44 56 46 41 37 42
55 58 61 60 64 63 55 62 58 52 48 53 61 47 44 55 54 48 42 34 37 46 51 49 54 31 33 40 38 39 39 36 35 35 29 28 31 25 27 27 35 38 45 44 41 37 34
52 57 62 67 65 61 53 58 61 62 56 55 61 54 50 47 62 56 38 31 37 42 49 50 42 40 35 41 44 40 37 38 40 41 32 31 35 41 40 34 32 36 30 30 32 35 33
57 61 61 63 58 55 58 64 64 66 57 54 58 64 66 53 67 48 41 35 42 38 55 48 46 45 46 48 51 50 45 48 48 65 47 47 50 54 52 42 40 29 26 26 28 30 30
66 73 77 71 69 65 59 72 69 69 57 60 65 67 71 64 56 60 45 43 46 43 56 59 49 50 55 48 56 60 58 46 44 56 53 54 60 60 56 52 37 33 29 27 27 30 27
75 77 79 83 73 75 75 80 73 68 55 59 70 76 84 72 60 55 48 48 52 59 70 68 56 65 55 60 59 57 56 37 39 40 45 49 51 52 55 54 48 39 32 28 27 37 30
83 88 93 98 97 98 92 79 71 64 53 64 76 74 70 91 79 70 52 39 53 66 69 64 75 71 55 64 62 52 42 33 45 47 51 52 53 54 60 57 47 36 32 30 36 38 31
93 90 94 96 98 97 98 91 69 55 56 68 82 77 76 84 83 78 66 53 70 65 65 64 79 79 64 58 64 49 47 38 46 46 44 45 56 60 64 64 54 32 29 30 35 32 32
94 87 82 83 87 88 83 78 63 47 52 64 78 71 72 89 91 87 66 54 54 60 60 66 68 73 53 48 48 45 49 46 42 49 40 42 37 41 41 43 32 28 29 32 32 33 33

GFSGBSN_prec_cthk_036.txt.gz
RH
24 24 25 27 32 33 35 33 41 44 50 50 45 35 32 29 28 27 27 25 22 19 16 15 14 13 12 13 17 22 22 20 21 18 21 27 33 32 36 39 38 34 38 42 43 47 49
26 26 25 24 25 31 34 36 34 37 42 49 51 44 36 32 30 29 29 27 24 20 16 15 15 13 13 18 24 23 24 23 21 19 24 31 32 34 34 42 39 38 39 45 42 49 51
27 26 26 25 25 23 24 31 33 34 38 42 49 51 41 34 32 31 30 28 26 21 16 16 15 14 13 16 23 24 26 31 25 19 25 30 34 39 38 35 35 42 43 47 52 52 52
25 26 28 33 39 33 24 21 27 30 31 37 41 49 48 39 35 33 32 30 27 22 17 16 16 15 12 14 18 22 27 29 29 28 27 33 33 38 40 39 37 37 41 49 51 49 50
24 24 24 23 28 29 29 38 42 29 27 32 36 41 47 42 38 35 33 32 28 23 17 16 16 19 13 14 19 24 27 27 31 39 41 41 36 35 37 43 44 41 42 43 48 48 47
22 22 22 23 21 23 21 22 27 34 33 27 35 37 43 41 39 35 34 32 28 26 19 17 16 18 13 18 24 26 28 30 32 39 41 42 37 34 39 49 49 48 42 36 44 51 47
30 24 20 21 21 21 20 21 24 25 26 32 30 33 40 44 38 36 35 34 32 41 32 22 16 16 21 23 26 28 27 29 33 38 48 50 40 42 47 46 47 48 48 46 46 47 48
33 32 26 18 19 23 22 18 17 20 21 22 31 32 38 45 37 35 37 35 39 36 30 25 25 23 23 28 29 31 28 30 36 44 55 53 48 46 47 53 51 50 49 48 45 41 36
24 28 32 27 20 18 19 19 20 19 17 26 31 33 33 43 40 35 38 40 37 39 33 20 19 17 23 25 28 30 30 29 35 42 52 51 45 44 47 52 54 54 50 48 45 40 34
28 27 24 29 31 26 20 19 17 16 16 17 26 33 27 44 39 34 45 43 32 35 41 24 20 19 23 25 27 29 30 30 33 45 50 49 48 48 51 53 53 50 44 42 44 43 31
32 29 29 24 24 28 27 23 20 18 16 16 24 26 27 42 36 40 51 45 38 40 45 27 25 25 21 22 24 26 33 32 36 41 48 50 51 50 50 51 49 50 50 48 45 47 37
39 38 29 29 25 21 22 25 24 22 20 22 28 28 37 33 39 46 54 49 46 51 54 33 31 27 21 22 23 30 33 34 36 41 46 49 50 51 51 51 50 51 50 49 54 56 56
37 39 39 29 29 28 20 19 20 22 20 20 28 36 35 32 41 41 55 59 61 63 29 34 31 28 24 21 26 31 32 34 39 44 50 48 51 50 51 50 49 49 50 59 60 67 58
30 39 39 39 31 28 28 20 18 17 21 21 25 37 34 27 41 36 54 66 66 39 33 35 33 31 28 25 27 30 33 35 36 39 52 55 52 48 48 50 53 50 46 59 56 59 53
31 37 49 46 39 32 28 29 21 21 19 19 29 33 41 27 45 44 55 67 54 39 28 35 37 36 33 26 27 30 30 33 33 35 39 57 55 56 49 49 51 50 46 46 62 63 65
41 41 56 50 48 40 32 28 29 27 27 21 28 39 34 30 55 40 54 55 50 30 39 40 40 35 35 24 30 33 30 28 29 33 35 50 56 52 52 48 45 44 45 52 56 55 55
61 46 59 55 51 48 38 31 35 29 29 27 31 39 40 35 60 59 57 54 47 32 44 46 43 39 33 28 29 32 30 29 29 34 34 44 50 50 49 49 50 43 35 41 45 50 50
71 59 60 57 58 52 47 39 38 38 39 31 39 42 41 34 67 48 54 59 50 32 46 53 54 47 38 31 29 32 31 28 34 36 40 44 52 59 46 45 45 41 39 43 56 45 50
82 70 65 60 60 53 49 45 42 42 39 37 41 44 50 36 54 53 43 53 47 35 49 53 53 47 39 33 34 35 35 33 37 36 39 46 56 61 50 52 43 43 42 42 43 50 44
93 75 70 61 64 62 59 44 48 50 50 42 48 53 63 52 37 45 47 42 41 34 48 56 55 51 47 37 36 40 41 39 40 48 51 46 48 40 43 37 41 41 43 47 45 52 44
97 83 75 66 65 64 57 48 50 53 54 51 52 49 43 51 44 47 47 47 38 40 47 50 56 54 51 40 40 43 51 44 42 49 53 50 47 40 32 30 32 32 36 42 47 41 41
97 87 75 67 60 60 54 51 57 61 63 62 56 50 45 40 37 44 46 46 36 30 39 50 53 50 48 43 41 44 43 43 39 44 46 45 44 41 37 34 29 29 32 32 43 47 45
98 85 74 63 63 59 52 51 60 66 71 63 62 52 48 39 43 43 40 43 30 27 35 50 51 52 50 42 41 39 37 40 40 40 44 42 41 41 39 34 30 34 26 32 31 44 43
93 77 66 59 59 54 48 61 72 66 70 66 57 51 58 47 49 42 39 44 26 28 37 52 51 55 46 46 45 40 43 41 39 41 41 48 46 45 48 41 46 28 22 22 25 27 30
81 69 57 53 55 52 59 68 68 69 75 69 63 65 65 52 42 49 51 43 28 30 40 53 53 56 55 48 53 51 58 49 47 49 51 57 62 61 57 56 42 30 25 26 31 35 33
71 60 52 50 53 54 66 66 61 68 71 70 64 68 61 66 50 43 56 49 34 36 45 57 61 63 66 64 58 56 63 54 58 52 50 52 60 62 70 60 52 32 29 31 33 43 35
66 60 58 57 60 65 69 66 60 63 65 62 68 76 77 70 49 45 44 49 47 37 52 61 69 64 68 68 73 62 60 51 60 50 44 51 59 61 66 61 46 31 34 33 35 34 35
78 70 65 66 67 71 72 66 66 63 64 63 62 74 76 76 68 76 54 52 45 40 47 56 68 66 73 73 73 65 59 54 53 42 36 41 57 62 65 64 49 34 34 35 36 36 33
67 71 74 79 77 72 72 68 69 67 70 62 73 74 75 71 66 78 72 51 44 44 45 55 55 61 65 73 63 66 59 57 46 50 41 44 35 42 46 46 37 31 29 29 28 29 32

GFSGBSN_prec_cthk_039.txt.gz
RH
26 24 25 25 28 34 37 37 36 34 41 42 47 46 42 33 30 29 29 28 28 27 24 19 15 13 14 11 12 19 18 17 18 20 21 27 29 32 38 41 38 39 45 45 45 49 46
27 27 24 24 24 26 28 36 38 38 35 37 41 44 48 43 35 32 31 30 30 29 25 21 15 14 15 13 19 20 19 20 20 20 23 28 32 36 32 38 37 42 45 46 51 51 45
28 28 28 26 27 25 25 26 32 36 36 37 38 39 45 50 41 35 33 32 32 30 26 22 16 15 15 12 19 20 23 24 21 19 26 29 34 37 40 35 36 44 46 52 51 49 52
24 26 26 26 26 26 25 25 25 30 34 34 35 33 41 48 48 40 35 33 34 32 27 23 17 15 14 11 15 20 23 26 23 25 27 28 32 33 40 39 36 45 43 44 45 50 50
24 24 23 24 24 25 27 26 28 28 30 32 32 29 37 39 46 43 38 35 35 33 28 25 18 16 13 12 14 20 23 27 28 34 35 35 35 34 38 43 45 43 47 40 45 54 52
35 29 25 24 23 24 24 26 28 36 48 50 50 39 37 41 45 43 39 38 39 33 30 28 20 17 13 15 18 22 24 27 29 38 37 43 36 37 37 40 48 49 49 45 47 54 51
27 33 34 30 22 23 23 23 23 22 24 28 36 48 57 38 41 43 38 40 39 40 39 32 20 14 17 18 21 23 26 27 29 37 45 47 40 40 39 42 47 51 48 46 44 42 51
30 24 28 34 34 26 24 23 22 20 19 18 28 35 40 44 39 51 41 42 44 44 39 31 25 23 22 24 27 25 26 28 30 42 52 50 42 41 40 43 46 48 47 50 46 46 46
28 30 26 24 30 33 31 29 27 21 16 15 17 28 30 38 49 43 42 47 43 41 41 29 22 20 21 23 26 27 27 29 31 41 53 51 44 45 44 45 42 43 45 50 50 45 39
25 26 29 29 24 27 30 34 30 25 20 18 17 20 37 37 43 59 50 49 38 38 47 32 26 18 22 25 25 27 27 29 30 39 51 52 47 45 45 48 45 49 50 51 49 49 39
25 25 26 29 30 24 25 26 29 31 26 19 18 24 40 44 32 32 48 55 48 47 41 27 25 24 20 23 23 24 28 30 31 38 43 50 51 51 49 48 50 53 50 51 46 46 47
29 25 24 31 31 30 25 25 27 27 29 24 20 26 37 35 35 50 59 54 51 53 49 33 29 27 23 25 24 22 27 30 33 37 42 47 49 51 51 49 50 49 48 50 50 52 53
41 32 24 30 39 37 30 27 26 26 27 28 24 30 36 24 27 42 58 63 67 64 31 34 33 30 26 25 25 24 28 31 34 40 43 47 48 48 50 51 50 49 51 57 58 66 58
56 43 32 26 36 40 36 30 29 26 26 27 26 31 34 33 32 47 56 68 73 53 35 36 35 33 30 25 24 26 30 34 32 38 45 51 52 48 49 51 49 51 51 56 54 61 55
68 61 45 30 31 41 39 34 31 29 26 28 24 31 34 47 44 51 63 68 60 51 41 33 39 40 35 27 24 27 30 33 35 32 40 49 53 51 51 51 52 51 51 45 58 62 63
76 71 65 43 31 47 49 39 34 30 28 29 26 31 34 36 46 56 56 57 51 41 47 43 42 40 38 34 31 30 30 30 33 33 34 41 49 49 51 49 50 51 49 48 53 54 57
86 79 73 67 40 37 50 49 40 39 31 31 30 36 28 27 46 64 53 52 51 32 42 49 50 44 38 38 30 28 28 30 32 31 34 37 45 50 49 47 44 47 49 46 46 57 59
99 89 81 75 65 40 46 52 50 39 40 41 34 37 30 28 48 54 51 46 44 29 40 52 54 51 42 39 33 29 30 31 31 35 35 35 39 49 44 45 47 46 51 50 53 42 54
99 98 92 83 71 57 48 57 51 44 43 43 42 42 39 29 47 46 46 49 40 30 39 47 53 56 48 42 40 32 29 33 35 35 35 37 40 44 45 47 48 49 49 46 45 48 49
99 98 98 97 73 70 70 65 62 46 51 49 48 53 55 51 26 38 45 46 51 33 33 45 53 61 53 47 40 38 36 35 36 38 37 36 43 45 47 46 50 53 48 47 48 59 46
99 98 98 98 80 81 74 64 62 52 54 55 52 46 45 54 40 39 42 44 50 47 42 43 52 55 57 58 46 44 39 39 36 39 39 41 47 47 47 44 37 42 46 45 43 43 46
99 98 99 98 84 86 78 69 62 57 63 65 54 48 44 47 42 41 43 48 47 39 47 46 43 51 50 59 53 49 42 40 42 42 41 45 53 49 51 47 44 38 34 37 38 35 38
99 98 99 98 90 89 80 69 64 52 73 66 60 51 48 44 45 50 36 36 38 42 34 33 42 53 52 58 58 51 50 40 49 50 47 48 52 54 48 48 44 45 36 32 29 30 32
99 98 99 98 91 90 80 70 67 51 59 69 58 48 62 47 50 39 39 44 33 38 29 25 38 55 50 61 58 55 52 50 49 55 50 51 51 54 56 47 50 27 26 24 25 23 25
98 98 98 97 97 92 81 69 63 43 60 75 64 55 65 67 45 43 44 42 38 33 33 27 36 44 59 68 67 67 68 57 54 53 52 44 44 52 53 55 43 35 31 30 27 26 24
98 99 98 97 97 91 71 59 59 41 60 75 71 58 67 69 60 44 48 43 40 34 33 28 43 59 61 74 77 74 72 58 60 56 55 46 43 54 57 61 64 47 39 31 32 39 31
98 97 97 95 91 76 64 57 52 42 60 83 77 64 64 70 61 54 49 52 38 33 27 26 41 64 66 77 79 73 71 55 58 55 53 59 61 61 60 56 50 39 37 36 38 33 35
98 94 85 80 71 60 56 55 49 48 67 87 85 70 63 73 72 60 55 52 45 38 34 33 54 63 69 76 82 76 72 58 55 50 51 57 65 55 53 53 51 37 39 35 32 37 39
79 73 72 66 58 54 53 50 56 62 76 88 88 76 69 61 59 68 60 50 34 38 43 34 47 56 58 70 79 81 74 67 59 60 48 51 45 39 39 44 41 38 37 35 38 39 40

GFSGBSN_prec_cthk_042.txt.gz
RH
28 29 28 27 30 29 30 35 38 40 40 39 45 47 49 50 45 34 29 27 28 28 29 28 26 20 15 14 12 18 16 15 14 17 22 24 28 32 32 33 39 42 45 46 45 50 52
29 27 27 27 25 27 29 31 33 39 41 41 41 40 46 46 50 45 35 31 30 31 32 30 27 21 17 16 18 19 16 16 16 16 22 26 30 33 35 35 41 47 46 46 51 54 50
40 32 30 28 28 25 25 24 27 31 38 41 41 44 41 44 45 50 43 35 33 32 33 31 28 23 18 14 19 19 19 19 16 20 24 28 30 33 36 36 36 48 50 49 50 51 53
36 38 36 32 27 26 25 23 23 24 27 36 39 40 41 40 46 49 50 42 36 34 34 33 29 24 18 14 18 19 22 21 19 20 24 27 28 32 33 38 38 45 48 52 50 50 52
30 34 34 35 35 28 28 26 23 23 24 25 32 36 38 39 41 45 49 46 38 36 36 34 32 26 18 14 15 19 23 24 27 28 28 32 32 36 34 35 43 46 43 46 48 50 51
22 25 28 32 33 33 29 28 24 22 23 25 26 33 37 38 40 49 51 45 40 38 37 36 37 30 19 16 16 19 22 25 30 31 34 39 36 40 38 39 47 49 48 44 50 51 50
17 21 23 23 27 30 32 29 28 24 23 23 29 36 45 47 56 55 45 47 49 41 44 40 35 24 22 18 18 21 22 25 30 32 39 45 43 40 40 39 45 49 52 46 47 46 45
19 19 21 23 21 22 28 31 32 31 25 25 23 24 31 44 59 70 59 53 47 45 44 42 36 31 26 22 24 23 23 26 30 32 41 48 48 36 42 38 48 47 45 51 49 44 42
25 19 18 23 24 20 21 26 30 32 31 25 24 23 26 34 38 53 61 45 47 48 46 39 33 30 24 21 24 24 24 27 30 34 41 48 45 42 43 40 46 45 45 49 53 50 46
33 29 22 20 26 26 22 20 25 30 30 27 21 25 30 28 38 41 51 53 51 55 59 41 36 30 25 22 24 25 25 27 31 33 43 49 48 43 44 46 45 47 43 44 49 48 46
42 37 32 23 21 26 27 27 22 25 30 29 23 19 31 35 39 35 48 59 53 59 49 35 36 31 26 22 22 24 27 27 31 33 40 46 50 48 47 45 46 46 52 49 46 48 45
49 48 42 35 27 21 26 28 27 22 25 28 27 19 25 36 41 34 64 66 62 70 55 34 37 34 29 24 24 24 27 27 30 34 38 44 46 48 47 48 47 48 49 52 53 52 52
61 56 55 47 38 29 24 30 29 26 24 26 28 22 27 29 39 39 68 60 67 68 42 38 41 33 27 25 27 26 28 28 32 37 39 43 44 46 48 47 49 47 51 62 60 64 57
77 68 63 64 53 42 30 31 39 29 28 27 26 26 27 31 26 44 64 78 77 49 42 41 41 36 33 27 28 29 29 29 30 34 44 44 45 47 48 47 50 51 52 61 55 61 53
84 86 79 66 63 55 40 31 44 38 31 29 31 28 27 28 35 41 66 73 66 59 45 35 40 42 39 31 29 30 31 29 28 32 38 46 47 49 50 51 52 51 53 51 61 63 65
78 85 92 85 72 64 53 34 39 50 39 33 30 32 26 22 36 53 60 53 52 47 52 50 42 42 39 34 31 31 33 28 27 30 35 43 45 53 54 51 53 51 51 53 57 55 52
83 80 90 97 85 72 66 44 43 53 48 42 40 38 22 22 43 60 61 53 46 47 47 55 56 53 42 39 33 31 30 29 29 31 34 40 40 46 54 50 50 51 52 54 54 56 57
80 87 88 96 95 83 72 58 45 60 58 51 44 40 27 21 47 57 63 56 45 41 49 49 57 59 51 41 40 34 30 27 31 30 36 39 40 45 45 48 47 45 46 48 59 52 59
71 88 93 94 99 92 80 69 50 67 60 50 52 45 37 23 47 47 48 61 54 49 43 46 51 53 58 46 42 39 31 27 33 34 37 39 40 42 42 47 46 46 48 50 55 58 58
67 79 96 98 98 99 86 75 63 64 65 48 59 59 57 48 25 37 41 51 54 43 40 39 42 54 56 50 45 40 35 31 35 35 39 38 42 39 36 33 42 48 48 51 49 58 48
80 68 90 97 99 98 92 83 75 77 74 60 63 58 49 52 38 37 37 40 43 44 41 34 37 50 58 55 54 45 44 38 38 39 43 44 45 43 39 41 47 48 48 50 54 50 52
84 69 91 99 98 98 97 92 76 79 79 70 65 58 51 41 32 41 46 42 39 36 42 38 37 36 56 58 55 53 54 47 39 42 44 45 47 43 45 46 46 47 45 43 45 44 39
84 74 92 99 98 99 98 96 82 83 82 73 67 50 46 47 44 44 36 37 35 35 38 41 27 28 51 55 58 55 58 55 48 44 42 43 48 53 55 56 54 50 39 38 34 31 30
85 86 95 99 98 98 98 94 91 84 70 59 59 56 53 56 51 36 37 40 37 28 34 35 32 36 39 57 60 60 63 60 55 50 48 58 56 53 64 59 53 32 30 30 31 28 28
81 84 92 99 99 99 97 97 93 89 79 66 65 65 58 58 44 47 46 43 41 31 34 39 37 30 47 58 68 65 76 66 66 58 51 56 59 62 64 61 43 32 29 34 35 31 26
79 80 94 98 98 98 96 97 97 96 79 63 75 71 68 66 46 47 47 49 44 35 33 43 40 36 41 61 74 75 84 73 74 59 58 55 54 61 66 58 51 34 30 39 38 33 30
72 84 98 98 99 97 98 98 97 90 72 63 74 77 69 72 68 48 44 44 46 35 34 33 34 31 38 55 84 80 81 76 78 66 62 67 64 63 66 57 46 37 31 29 36 30 29
92 98 98 99 98 98 98 97 95 83 69 58 67 82 74 69 74 70 61 45 39 33 35 33 36 36 45 52 73 86 86 79 79 65 61 60 66 67 65 61 56 34 29 31 31 31 30
98 98 98 98 98 97 98 98 93 72 64 58 71 82 70 72 72 73 72 66 53 40 34 32 27 29 28 47 70 78 83 83 73 73 60 59 51 55 54 53 45 30 26 28 32 33 32

GFSGBSN_prec_cthk_045.txt.gz
RH
37 33 31 30 28 27 27 27 30 33 37 41 42 42 42 48 47 49 49 42 33 29 28 29 30 29 26 22 17 19 19 15 13 14 18 23 23 27 31 31 38 46 41 42 44 49 57
39 39 37 32 31 30 29 27 26 27 30 36 42 42 44 42 43 46 47 51 42 34 31 32 33 30 28 23 20 20 18 16 14 14 20 23 26 28 32 34 40 41 45 44 50 59 59
41 41 39 37 35 32 30 32 29 26 26 26 33 39 42 45 44 44 46 49 49 39 36 34 35 32 29 22 22 23 21 18 15 16 21 24 28 30 32 35 36 40 44 45 51 55 58
28 31 36 37 36 35 33 29 31 30 28 24 26 31 38 41 44 44 42 47 50 46 39 36 37 35 30 23 23 24 23 20 18 20 22 24 26 30 34 35 37 36 39 48 52 54 58
23 23 25 27 32 35 35 32 28 27 28 27 24 25 28 34 38 40 40 44 52 49 44 40 39 37 31 25 24 24 25 24 22 23 24 26 29 30 34 35 39 40 38 40 47 52 58
21 20 20 21 24 26 30 34 30 24 25 26 25 24 25 30 33 33 37 41 46 43 46 47 44 40 33 28 25 23 25 26 27 28 29 31 38 35 36 33 37 45 41 41 47 54 55
24 21 19 18 18 21 22 25 30 30 25 23 24 23 22 29 36 39 45 43 37 42 49 43 47 37 31 29 25 24 25 28 28 30 31 37 42 38 37 34 40 44 45 45 52 49 52
32 31 26 21 17 21 23 22 22 25 27 24 23 21 21 27 37 42 46 50 55 56 53 45 48 43 39 34 29 24 25 27 28 31 34 39 46 38 36 37 43 45 43 49 45 44 43
20 27 31 29 25 18 23 27 23 20 22 26 25 22 20 25 32 36 43 50 57 66 64 49 39 36 39 41 28 24 25 27 28 31 33 38 42 42 42 41 45 44 40 53 52 47 41
27 24 27 32 32 28 20 26 28 24 20 21 26 25 22 24 30 32 38 48 48 61 57 42 40 37 38 36 29 24 26 27 30 30 35 38 45 43 44 45 40 45 41 47 49 51 51
42 39 38 35 36 36 30 19 26 28 25 19 21 27 23 28 28 35 41 45 50 54 54 38 46 49 41 34 27 25 27 28 30 31 33 36 44 48 46 44 45 44 46 47 46 48 49
57 52 46 44 43 41 39 29 22 35 28 28 21 23 25 28 27 31 46 52 51 63 57 41 46 48 51 36 29 26 28 29 30 32 32 35 40 46 47 44 44 46 47 49 52 49 49
68 68 69 62 54 53 47 42 29 26 39 32 28 23 24 26 28 29 48 61 65 70 39 42 51 44 40 36 33 30 29 30 31 34 35 35 38 45 46 48 47 46 50 55 55 55 51
66 66 70 75 71 60 57 54 43 30 31 41 34 30 25 24 27 35 48 65 72 50 39 45 54 48 39 32 33 31 30 31 31 29 32 35 39 43 44 48 48 50 48 57 53 53 48
70 71 69 69 77 78 68 61 57 44 35 39 43 37 31 22 28 36 52 62 57 55 42 40 50 58 45 34 32 32 32 31 29 27 30 40 40 43 49 51 52 53 54 52 60 64 59
75 74 76 79 76 78 86 76 64 59 44 50 47 46 35 26 30 34 52 52 51 54 48 51 44 53 52 43 35 34 35 30 29 27 29 36 41 46 51 57 59 57 56 58 59 59 59
77 74 72 78 82 80 81 90 78 67 58 58 50 52 40 33 43 43 46 46 44 52 52 55 62 58 49 48 40 38 35 30 28 28 30 34 38 45 52 58 56 61 59 57 57 57 55
70 72 73 79 84 88 85 86 93 78 66 75 65 47 46 41 53 50 41 38 41 38 52 52 62 64 57 51 45 41 35 31 28 27 30 33 40 45 43 51 55 55 53 51 57 53 56
73 80 78 73 78 93 91 90 93 91 73 79 73 46 47 45 57 47 35 39 39 38 39 43 54 63 61 59 51 45 39 31 29 30 31 34 39 42 39 45 52 53 51 49 50 52 53
90 83 75 67 62 85 97 93 93 95 79 82 76 67 60 66 43 36 45 46 49 42 43 41 44 58 59 64 63 51 44 37 30 31 33 34 39 37 37 34 42 51 49 49 50 55 50
87 91 88 82 66 71 98 97 96 97 88 88 78 75 42 60 55 37 41 37 42 48 47 39 37 47 59 65 68 60 52 46 39 39 40 41 41 38 35 37 39 38 43 50 48 47 51
88 93 90 96 76 74 97 98 99 97 91 92 78 63 58 41 39 47 48 46 40 39 42 49 45 45 33 56 68 68 60 55 46 45 45 47 44 44 42 43 42 42 41 47 47 43 38
87 90 96 97 80 75 97 99 99 98 94 86 74 58 55 43 47 54 43 47 46 40 35 39 46 44 34 34 62 66 65 60 53 51 51 49 49 47 47 48 46 48 43 42 40 36 33
91 96 92 97 83 78 98 99 99 96 86 81 72 63 63 61 50 39 41 47 46 34 28 35 37 35 23 20 53 68 65 62 61 59 54 53 50 51 55 53 61 41 44 41 36 30 29
97 98 99 93 87 82 99 99 98 94 92 89 76 67 62 71 51 40 46 45 54 41 32 28 34 35 31 30 52 62 73 65 64 65 61 55 52 58 65 58 43 37 38 37 37 23 25
86 91 91 90 77 87 99 98 98 94 89 89 88 82 66 73 58 46 45 46 52 43 38 33 31 43 45 50 46 61 74 78 72 71 67 61 55 59 64 64 60 35 36 34 31 29 22
93 91 84 78 87 96 98 98 99 97 91 98 93 74 73 70 62 53 48 47 52 47 41 36 29 43 46 51 60 58 67 74 80 76 74 68 66 61 62 61 51 36 35 34 40 25 22
89 88 84 87 97 99 98 98 98 96 93 95 88 72 68 79 80 71 57 55 55 47 40 37 38 37 52 59 59 56 66 63 73 74 73 69 72 69 63 63 52 37 38 40 33 22 26
83 88 93 98 97 99 99 98 95 96 98 94 87 80 70 78 92 83 64 65 56 45 36 35 25 25 32 52 53 51 60 68 69 75 73 73 65 66 56 52 45 40 37 40 28 22 25

GFSGBSN_prec_cthk_048.txt.gz
RH
49 44 41 38 34 33 31 30 29 28 28 31 35 38 37 38 39 45 44 42 44 42 35 31 30 30 31 30 24 24 25 20 17 15 15 19 21 23 28 28 31 35 37 41 46 49 55
45 47 44 43 42 38 35 32 31 30 28 27 28 33 40 41 40 38 38 41 41 45 43 37 34 34 35 32 25 22 24 21 18 15 18 20 24 25 29 30 32 38 35 42 50 54 62
35 37 39 40 41 40 41 36 30 30 29 28 27 27 30 37 41 41 42 37 39 43 46 43 38 36 36 33 26 27 25 24 20 19 19 21 25 27 29 32 32 35 45 45 50 56 54
33 33 32 32 32 35 38 39 35 30 31 28 27 26 26 28 35 39 42 39 37 41 44 44 42 42 39 34 27 29 28 27 21 19 20 21 23 27 29 31 31 31 38 47 48 51 56
27 26 25 27 27 27 29 30 34 34 28 28 28 26 25 25 27 34 36 33 34 38 41 43 44 47 43 35 30 28 30 31 25 22 21 22 24 28 27 30 32 32 41 41 47 52 56
23 23 23 20 21 24 25 28 25 27 30 27 25 26 25 25 26 29 30 30 32 33 37 41 44 47 45 38 31 29 32 33 28 26 26 27 29 34 31 31 33 39 35 39 44 51 53
20 24 22 24 23 20 18 22 28 23 22 24 24 24 24 24 24 28 30 35 36 37 37 35 41 42 42 39 34 33 32 36 32 30 30 30 34 39 32 32 32 38 37 43 46 45 52
16 14 17 21 25 24 22 16 22 29 22 19 21 24 24 22 24 28 34 37 42 44 42 39 39 40 42 41 41 34 33 37 33 32 32 32 36 38 33 33 33 40 44 47 43 41 44
25 23 20 16 18 21 25 25 16 24 28 24 18 20 23 20 24 25 31 32 38 46 47 43 44 43 42 44 47 36 32 35 31 31 32 33 36 37 36 34 38 43 50 50 48 42 38
37 36 34 32 27 21 23 28 28 18 27 28 24 20 19 19 22 27 30 27 36 46 52 38 40 43 47 43 46 36 35 33 31 31 32 32 35 38 38 37 39 45 45 44 48 48 48
46 45 43 41 37 35 29 31 32 29 22 29 29 28 23 19 27 27 31 30 38 49 46 33 39 42 42 37 38 42 35 32 31 30 32 33 35 37 41 40 39 43 42 44 46 46 47
49 50 50 50 48 43 40 37 36 36 29 28 32 32 29 24 20 25 33 36 42 49 50 34 42 43 45 42 36 42 33 32 32 33 32 36 35 38 42 41 41 45 47 46 46 47 50
59 58 58 58 60 60 56 49 47 41 41 30 38 30 35 31 22 29 36 41 48 47 32 34 43 46 43 45 42 40 36 33 32 35 33 32 34 35 39 45 42 45 50 56 58 55 53
67 67 66 66 66 67 69 68 62 57 48 38 37 39 30 38 31 36 44 51 47 26 34 38 43 47 44 43 45 48 37 34 32 30 32 34 36 34 36 42 45 45 48 58 62 57 53
67 67 65 66 66 64 64 65 68 66 61 55 47 48 38 29 33 41 60 60 29 31 34 37 45 52 47 42 41 43 37 33 31 31 31 31 33 33 38 44 45 48 48 52 59 58 54
74 72 72 73 72 68 68 68 67 72 74 66 56 58 45 32 34 47 67 44 27 32 36 37 37 46 53 46 41 38 39 32 33 30 29 31 35 38 43 46 48 51 52 55 56 62 57
80 80 79 76 78 79 77 78 77 76 83 84 73 71 42 39 41 56 72 39 30 40 40 40 43 40 52 54 43 40 35 32 30 32 32 34 35 44 45 46 48 51 54 55 56 54 57
81 79 78 82 82 80 78 81 81 84 87 94 88 72 60 57 55 61 59 40 35 40 50 40 47 52 51 58 54 46 37 30 29 31 32 33 37 41 42 47 49 49 53 56 58 54 50
72 72 70 72 87 90 80 80 88 88 93 93 90 84 81 71 58 48 28 48 50 46 48 47 45 48 55 56 57 54 44 37 35 33 32 34 37 42 42 43 45 44 46 49 51 51 47
65 65 65 61 72 95 87 81 87 96 99 98 98 98 94 81 45 31 27 43 49 52 43 48 44 44 57 62 58 57 51 44 37 33 34 32 36 36 40 36 39 44 44 48 51 56 48
73 75 85 92 82 89 85 85 86 92 99 99 98 96 80 69 61 33 31 31 44 54 45 48 47 41 50 64 64 64 60 53 47 37 38 41 41 37 33 34 37 33 34 44 48 45 46
64 73 89 97 98 90 87 93 85 92 99 99 97 88 81 64 54 40 42 34 44 46 45 46 40 41 38 62 69 73 70 63 58 50 39 44 43 41 39 35 34 35 33 34 38 39 42
62 91 97 98 98 96 91 91 87 86 99 98 93 89 81 69 58 55 56 35 32 45 45 41 39 38 36 29 67 72 73 73 66 58 52 48 45 44 42 40 41 44 34 34 35 37 36
70 74 94 99 98 98 96 88 87 88 99 94 79 85 87 76 77 48 35 44 46 35 42 54 52 46 50 26 42 53 76 77 69 61 56 54 49 49 49 55 64 31 32 34 34 36 38
88 78 76 88 98 96 98 91 86 94 98 96 88 86 89 87 61 59 49 46 48 52 47 42 49 35 47 36 48 43 49 71 73 65 60 56 57 57 64 49 39 35 30 36 41 32 33
84 84 88 88 94 98 98 95 81 98 99 97 89 85 88 81 62 63 59 54 54 57 59 46 39 40 43 55 58 45 41 46 70 75 66 64 63 62 62 55 61 30 33 38 38 27 32
82 95 91 95 95 99 98 90 92 98 99 91 91 88 91 82 74 69 74 58 57 66 56 49 42 42 47 62 61 42 41 45 63 76 77 72 73 70 62 62 45 34 33 45 44 25 30
89 84 82 96 94 94 87 83 95 99 98 97 92 92 93 87 83 77 81 72 64 72 66 47 47 41 52 61 60 46 47 46 57 58 73 70 71 74 69 75 61 40 40 37 31 35 32
88 90 91 89 87 80 84 93 97 99 98 97 98 95 91 89 76 71 81 81 80 68 60 50 22 29 38 48 56 49 50 48 40 56 56 75 69 66 57 54 49 47 42 40 39 37 38

GFSGBSN_prec_cthk_051.txt.gz
RH
50 54 53 52 48 42 39 35 32 32 30 29 29 29 30 32 37 40 40 38 38 40 38 40 36 32 31 35 32 29 28 26 21 20 19 20 20 24 28 29 31 32 32 38 40 41 49
43 43 45 46 48 50 48 45 41 35 33 31 29 27 28 28 30 36 40 44 38 37 38 39 42 38 39 38 34 29 26 27 23 22 21 21 25 25 29 27 29 42 28 35 43 44 43
49 48 39 38 38 41 42 44 44 42 36 34 32 29 28 27 27 27 31 34 38 40 37 37 42 43 43 39 36 32 28 28 26 24 24 22 23 24 32 28 28 27 33 45 38 43 53
40 39 37 39 39 37 34 34 36 38 39 35 34 33 31 29 27 27 28 30 30 34 36 37 39 44 42 39 39 36 33 31 26 26 23 23 22 23 28 29 28 29 35 42 70 54 53
32 32 33 33 32 32 32 34 32 30 30 32 32 30 31 30 29 28 29 29 28 29 29 34 37 42 42 42 41 39 38 34 29 27 24 23 21 24 31 26 36 36 34 40 45 47 47
19 23 24 27 27 26 26 24 24 26 30 26 25 25 26 27 28 28 29 29 30 30 32 32 35 40 36 41 40 40 41 37 33 31 28 25 24 27 35 35 37 33 35 34 32 50 43
20 20 16 18 21 22 21 23 19 18 21 24 28 22 21 22 23 24 28 35 41 50 46 33 41 32 33 39 43 40 40 39 36 36 31 31 32 34 48 44 32 33 37 32 37 52 43
19 21 22 19 15 15 22 21 22 20 18 23 22 20 21 20 17 19 27 38 42 42 39 39 37 33 37 38 42 40 41 41 38 37 36 40 35 37 39 34 29 30 43 38 42 45 30
24 26 27 28 27 23 16 17 20 21 23 20 27 25 22 18 17 11 22 30 39 38 39 33 34 33 29 34 38 40 42 44 41 39 40 38 41 37 34 35 30 32 45 47 47 51 34
32 32 34 35 35 34 32 26 18 18 24 23 27 27 26 24 15 14 21 21 28 36 37 28 39 35 35 40 38 38 42 45 42 39 41 37 39 33 33 38 35 44 40 48 47 44 42
38 40 42 42 43 42 39 36 35 27 26 30 25 29 27 24 29 27 35 26 25 37 29 29 34 39 39 38 37 42 43 44 41 41 40 36 35 33 34 40 41 43 50 41 43 46 46
46 46 46 48 48 47 47 44 41 40 29 33 31 32 35 26 23 28 38 32 34 35 31 28 37 38 40 41 38 43 43 42 39 44 36 34 40 35 35 43 42 42 44 44 45 47 53
55 55 55 56 57 56 53 53 54 50 47 38 37 35 42 35 25 29 40 42 43 33 18 24 35 39 41 41 37 41 44 40 41 44 38 34 38 35 36 40 43 39 44 55 57 51 50
67 67 67 66 65 64 65 64 64 66 62 57 44 43 46 37 30 30 43 57 44 16 20 30 33 37 41 42 40 40 43 40 42 41 36 36 40 34 33 33 50 41 45 57 64 61 53
73 72 71 70 69 66 65 65 66 70 71 74 68 54 48 46 34 44 54 68 31 19 19 25 35 43 42 41 46 45 42 41 40 39 35 38 37 36 37 33 39 53 47 48 56 58 54
75 74 72 72 71 69 69 70 69 71 71 73 80 66 59 56 54 51 63 67 30 24 22 31 31 42 47 44 43 46 46 44 43 41 34 38 39 38 38 35 38 45 55 52 51 62 61
73 72 72 73 72 74 74 75 76 76 80 80 82 79 57 68 73 67 66 42 35 28 28 34 39 45 52 58 45 43 48 49 48 47 39 38 35 43 43 37 42 42 49 52 55 52 68
74 75 74 77 77 79 80 80 82 84 87 90 85 75 70 77 89 77 56 27 18 35 40 48 50 57 42 54 55 44 47 47 43 45 44 38 40 51 48 39 37 53 45 51 58 59 55
74 74 76 76 80 83 85 85 85 90 94 95 89 84 82 92 91 73 44 27 20 27 43 51 59 60 60 61 62 53 47 47 43 45 48 37 43 45 52 50 46 49 54 53 57 56 60
79 75 74 72 73 78 82 87 95 98 98 99 99 98 94 96 76 75 51 31 27 33 33 44 66 65 64 65 61 63 57 52 42 38 42 42 39 40 42 42 47 42 43 48 51 61 54
70 65 61 63 66 67 72 77 97 99 99 99 99 92 79 84 77 53 58 37 29 38 35 38 52 81 62 60 54 60 62 64 53 46 47 46 43 41 38 42 45 45 46 47 48 50 54
57 57 58 64 66 66 66 62 67 94 99 99 98 92 82 75 70 75 71 55 36 34 43 42 37 58 74 63 61 66 63 61 63 57 50 50 51 41 42 39 45 41 42 40 40 43 45
71 68 73 73 69 67 75 71 71 95 99 99 98 87 85 79 79 78 72 52 37 31 39 39 34 52 74 70 74 74 75 64 76 70 57 57 53 50 49 44 42 46 35 40 37 39 37
82 84 82 82 75 69 74 80 84 87 96 95 94 86 91 84 94 70 60 66 50 38 38 45 47 43 44 73 81 77 70 66 73 73 68 65 60 56 62 58 61 38 36 34 34 34 35
76 73 70 67 70 72 78 88 98 98 98 90 81 93 90 88 80 75 81 77 65 51 57 62 56 43 48 52 62 79 75 82 74 77 73 70 68 62 64 56 44 38 35 35 33 35 35
66 70 76 81 84 81 98 98 99 97 97 85 86 93 95 90 82 79 81 80 67 63 64 78 66 70 68 51 53 60 49 44 49 62 80 72 67 71 65 60 59 38 37 34 34 35 38
68 69 79 87 82 84 97 99 98 98 99 92 85 87 97 92 83 84 86 80 62 68 73 61 78 77 55 52 63 47 48 42 49 64 93 83 77 79 74 65 46 38 35 40 46 25 50
79 92 83 82 84 87 98 98 98 98 96 93 84 91 97 95 89 90 93 91 71 64 68 80 63 88 79 56 44 47 55 55 56 56 70 83 78 79 70 69 65 44 40 38 32 36 46
79 86 92 90 92 95 98 98 97 98 97 95 98 97 97 98 98 88 97 91 74 77 61 71 65 62 51 56 39 39 60 67 62 63 55 66 78 75 67 61 54 50 46 45 49 49 46